Observation data for Wall on 09/12/2017      Previous  Date       Current Mesonet Observations  Soil Data  Daily Summary Page  Observations in Plain Language
KWA1 120500Z 16005KT 17/11 A3007 RMK A01 T01690114  RH  070%=      5-min Rain = 0
KWA1 120501Z 16005KT 17/12 A3007 RMK A01 T01690115  RH  070%=      5-min Rain = 0
KWA1 120502Z 16006KT 17/11 A3007 RMK A01 T01690114  RH  070%=      5-min Rain = 0
KWA1 120503Z 16006KT 17/11 A3007 RMK A01 T01700114  RH  070%=      5-min Rain = 0
KWA1 120504Z 16006KT 17/11 A3007 RMK A01 T01700114  RH  070%=      5-min Rain = 0
KWA1 120505Z 16006KT 17/11 A3007 RMK A01 T01690114  RH  070%=      5-min Rain = 0
KWA1 120506Z 16006KT 17/11 A3007 RMK A01 T01690114  RH  070%=      5-min Rain = 0
KWA1 120507Z 16006KT 17/11 A3007 RMK A01 T01690114  RH  070%=      5-min Rain = 0
KWA1 120508Z 16006KT 17/11 A3007 RMK A01 T01680114  RH  071%=      5-min Rain = 0
KWA1 120509Z 16006KT 17/11 A3007 RMK A01 T01670114  RH  071%=      5-min Rain = 0
KWA1 120510Z 16006KT 17/11 A3007 RMK A01 T01660114  RH  071%=      5-min Rain = 0
KWA1 120511Z 16005KT 17/11 A3007 RMK A01 T01660114  RH  071%=      5-min Rain = 0
KWA1 120512Z 17006KT 17/11 A3007 RMK A01 T01660114  RH  071%=      5-min Rain = 0
KWA1 120513Z 16005KT 17/11 A3007 RMK A01 T01660114  RH  071%=      5-min Rain = 0
KWA1 120514Z 17005KT 17/11 A3007 RMK A01 T01650114  RH  071%=      5-min Rain = 0
KWA1 120515Z 16005KT 17/11 A3007 RMK A01 T01660114  RH  071%=      5-min Rain = 0
KWA1 120516Z 17005KT 17/11 A3007 RMK A01 T01660114  RH  071%=      5-min Rain = 0
KWA1 120517Z 17006KT 17/11 A3007 RMK A01 T01660113  RH  071%=      5-min Rain = 0
KWA1 120518Z 17006KT 17/11 A3007 RMK A01 T01650113  RH  071%=      5-min Rain = 0
KWA1 120519Z 17005KT 17/11 A3007 RMK A01 T01660113  RH  071%=      5-min Rain = 0
KWA1 120520Z 17006KT 17/11 A3007 RMK A01 T01660113  RH  071%=      5-min Rain = 0
KWA1 120521Z 17006KT 17/11 A3007 RMK A01 T01660113  RH  071%=      5-min Rain = 0
KWA1 120522Z 17005KT 17/11 A3007 RMK A01 T01660113  RH  071%=      5-min Rain = 0
KWA1 120523Z 17005KT 17/11 A3007 RMK A01 T01660113  RH  071%=      5-min Rain = 0
KWA1 120524Z 16005KT 17/11 A3007 RMK A01 T01670113  RH  071%=      5-min Rain = 0
KWA1 120525Z 17005KT 17/11 A3007 RMK A01 T01660113  RH  071%=      5-min Rain = 0
KWA1 120526Z 17005KT 17/11 A3007 RMK A01 T01670113  RH  071%=      5-min Rain = 0
KWA1 120527Z 17005KT 17/11 A3007 RMK A01 T01670113  RH  071%=      5-min Rain = 0
KWA1 120528Z 17005KT 17/11 A3007 RMK A01 T01660113  RH  071%=      5-min Rain = 0
KWA1 120529Z 17005KT 17/11 A3007 RMK A01 T01660113  RH  071%=      5-min Rain = 0
KWA1 120530Z 17005KT 17/11 A3006 RMK A01 T01660113  RH  071%=      5-min Rain = 0
KWA1 120531Z 17005KT 17/11 A3006 RMK A01 T01660113  RH  071%=      5-min Rain = 0
KWA1 120532Z 17005KT 17/11 A3006 RMK A01 T01670113  RH  071%=      5-min Rain = 0
KWA1 120533Z 17005KT 17/11 A3006 RMK A01 T01660113  RH  071%=      5-min Rain = 0
KWA1 120534Z 17005KT 17/11 A3006 RMK A01 T01660114  RH  071%=      5-min Rain = 0
KWA1 120535Z 17006KT 17/12 A3006 RMK A01 T01660115  RH  072%=      5-min Rain = 0
KWA1 120536Z 17005KT 17/12 A3006 RMK A01 T01650115  RH  072%=      5-min Rain = 0
KWA1 120537Z 17005KT 17/12 A3006 RMK A01 T01650116  RH  073%=      5-min Rain = 0
KWA1 120538Z 18005KT 16/12 A3006 RMK A01 T01640117  RH  074%=      5-min Rain = 0
KWA1 120539Z 18005KT 16/12 A3006 RMK A01 T01630118  RH  075%=      5-min Rain = 0
KWA1 120540Z 18006KT 16/12 A3006 RMK A01 T01620118  RH  075%=      5-min Rain = 0
KWA1 120541Z 19006KT 16/12 A3006 RMK A01 T01610118  RH  076%=      5-min Rain = 0
KWA1 120542Z 19006KT 16/12 A3006 RMK A01 T01600117  RH  076%=      5-min Rain = 0
KWA1 120543Z 19005KT 16/12 A3006 RMK A01 T01600117  RH  075%=      5-min Rain = 0
KWA1 120544Z 19006KT 16/12 A3006 RMK A01 T01600116  RH  075%=      5-min Rain = 0
KWA1 120545Z 19005KT 16/12 A3006 RMK A01 T01600117  RH  075%=      5-min Rain = 0
KWA1 120546Z 19005KT 16/12 A3006 RMK A01 T01600118  RH  076%=      5-min Rain = 0
KWA1 120547Z 19005KT 16/12 A3006 RMK A01 T01590119  RH  077%=      5-min Rain = 0
KWA1 120548Z 18004KT 16/12 A3006 RMK A01 T01590118  RH  077%=      5-min Rain = 0
KWA1 120549Z 18004KT 16/12 A3006 RMK A01 T01580118  RH  077%=      5-min Rain = 0
KWA1 120550Z 18004KT 16/12 A3006 RMK A01 T01580118  RH  077%=      5-min Rain = 0
KWA1 120551Z 18003KT 16/12 A3006 RMK A01 T01570117  RH  077%=      5-min Rain = 0
KWA1 120552Z 18003KT 16/12 A3006 RMK A01 T01570118  RH  077%=      5-min Rain = 0
KWA1 120553Z 19003KT 16/12 A3006 RMK A01 T01570118  RH  078%=      5-min Rain = 0
KWA1 120554Z 19003KT 16/12 A3006 RMK A01 T01570117  RH  077%=      5-min Rain = 0
KWA1 120555Z 21002KT 16/12 A3006 RMK A01 T01560115  RH  076%=      5-min Rain = 0
KWA1 120556Z 23002KT 16/11 A3006 RMK A01 T01560114  RH  076%=      5-min Rain = 0
KWA1 120557Z 26002KT 16/11 A3006 RMK A01 T01560110  RH  074%=      5-min Rain = 0
KWA1 120558Z 28002KT 16/11 A3006 RMK A01 T01560110  RH  074%=      5-min Rain = 0
KWA1 120559Z 29002KT 16/11 A3006 RMK A01 T01550110  RH  075%=      5-min Rain = 0
KWA1 120600Z 29002KT 15/11 A3006 RMK A01 T01530110  RH  075%=      5-min Rain = 0
KWA1 120601Z 28002KT 15/11 A3006 RMK A01 T01520110  RH  076%=      5-min Rain = 0
KWA1 120602Z 28002KT 15/11 A3006 RMK A01 T01520110  RH  076%=      5-min Rain = 0
KWA1 120603Z 28002KT 15/11 A3006 RMK A01 T01510109  RH  076%=      5-min Rain = 0
KWA1 120604Z 28002KT 15/11 A3006 RMK A01 T01510109  RH  076%=      5-min Rain = 0
KWA1 120605Z 28002KT 15/11 A3006 RMK A01 T01500109  RH  076%=      5-min Rain = 0
KWA1 120606Z 28002KT 15/11 A3006 RMK A01 T01500109  RH  076%=      5-min Rain = 0
KWA1 120607Z 27002KT 15/11 A3006 RMK A01 T01500109  RH  076%=      5-min Rain = 0
KWA1 120608Z 27002KT 15/11 A3006 RMK A01 T01500108  RH  076%=      5-min Rain = 0
KWA1 120609Z 27002KT 15/11 A3006 RMK A01 T01510109  RH  076%=      5-min Rain = 0
KWA1 120610Z 27002KT 15/11 A3006 RMK A01 T01510109  RH  076%=      5-min Rain = 0
KWA1 120611Z 28002KT 15/11 A3006 RMK A01 T01500108  RH  076%=      5-min Rain = 0
KWA1 120612Z 28002KT 15/11 A3006 RMK A01 T01500108  RH  076%=      5-min Rain = 0
KWA1 120613Z 29002KT 15/11 A3006 RMK A01 T01510109  RH  076%=      5-min Rain = 0
KWA1 120614Z 29002KT 15/11 A3006 RMK A01 T01500109  RH  076%=      5-min Rain = 0
KWA1 120615Z 30002KT 15/11 A3006 RMK A01 T01500109  RH  076%=      5-min Rain = 0
KWA1 120616Z 30003KT 15/11 A3006 RMK A01 T01500109  RH  076%=      5-min Rain = 0
KWA1 120617Z 30002KT 15/11 A3005 RMK A01 T01500110  RH  077%=      5-min Rain = 0
KWA1 120618Z 30002KT 15/11 A3005 RMK A01 T01500110  RH  077%=      5-min Rain = 0
KWA1 120619Z 30002KT 15/11 A3005 RMK A01 T01490110  RH  077%=      5-min Rain = 0
KWA1 120620Z 30002KT 15/11 A3005 RMK A01 T01490111  RH  078%=      5-min Rain = 0
KWA1 120621Z 30002KT 15/11 A3005 RMK A01 T01490112  RH  078%=      5-min Rain = 0
KWA1 120622Z 30002KT 15/11 A3005 RMK A01 T01480111  RH  078%=      5-min Rain = 0
KWA1 120623Z 30003KT 15/11 A3005 RMK A01 T01480111  RH  078%=      5-min Rain = 0
KWA1 120624Z 30003KT 15/11 A3005 RMK A01 T01480111  RH  079%=      5-min Rain = 0
KWA1 120625Z 30003KT 15/11 A3005 RMK A01 T01480111  RH  079%=      5-min Rain = 0
KWA1 120626Z 30003KT 15/11 A3005 RMK A01 T01480110  RH  078%=      5-min Rain = 0
KWA1 120627Z 31003KT 15/11 A3005 RMK A01 T01480109  RH  078%=      5-min Rain = 0
KWA1 120628Z 31003KT 15/11 A3005 RMK A01 T01470110  RH  078%=      5-min Rain = 0
KWA1 120629Z 31004KT 15/11 A3005 RMK A01 T01470109  RH  078%=      5-min Rain = 0
KWA1 120630Z 31004KT 15/11 A3005 RMK A01 T01470111  RH  079%=      5-min Rain = 0
KWA1 120631Z 31003KT 15/11 A3005 RMK A01 T01470111  RH  079%=      5-min Rain = 0
KWA1 120632Z 31003KT 15/11 A3005 RMK A01 T01470111  RH  079%=      5-min Rain = 0
KWA1 120633Z 31003KT 15/11 A3005 RMK A01 T01470110  RH  079%=      5-min Rain = 0
KWA1 120634Z 31003KT 15/11 A3005 RMK A01 T01470111  RH  079%=      5-min Rain = 0
KWA1 120635Z 31003KT 15/11 A3005 RMK A01 T01470111  RH  079%=      5-min Rain = 0
KWA1 120636Z 31003KT 15/11 A3005 RMK A01 T01470112  RH  080%=      5-min Rain = 0
KWA1 120637Z 31003KT 15/11 A3005 RMK A01 T01460112  RH  080%=      5-min Rain = 0
KWA1 120638Z 31003KT 15/11 A3005 RMK A01 T01460112  RH  080%=      5-min Rain = 0
KWA1 120639Z 31003KT 15/11 A3005 RMK A01 T01450112  RH  080%=      5-min Rain = 0
KWA1 120640Z 31002KT 15/11 A3005 RMK A01 T01450112  RH  080%=      5-min Rain = 0
KWA1 120641Z 31002KT 15/11 A3005 RMK A01 T01450110  RH  079%=      5-min Rain = 0
KWA1 120642Z 31003KT 15/11 A3005 RMK A01 T01460110  RH  079%=      5-min Rain = 0
KWA1 120643Z 31003KT 15/11 A3005 RMK A01 T01470112  RH  079%=      5-min Rain = 0
KWA1 120644Z 30003KT 15/11 A3005 RMK A01 T01480112  RH  079%=      5-min Rain = 0
KWA1 120645Z 30003KT 15/11 A3005 RMK A01 T01490111  RH  078%=      5-min Rain = 0
KWA1 120646Z 30003KT 15/11 A3005 RMK A01 T01490112  RH  079%=      5-min Rain = 0
KWA1 120647Z 30004KT 15/11 A3005 RMK A01 T01480113  RH  079%=      5-min Rain = 0
KWA1 120648Z 30004KT 15/11 A3005 RMK A01 T01480113  RH  080%=      5-min Rain = 0
KWA1 120649Z 30004KT 15/11 A3005 RMK A01 T01470113  RH  080%=      5-min Rain = 0
KWA1 120650Z 30004KT 15/11 A3005 RMK A01 T01470113  RH  080%=      5-min Rain = 0
KWA1 120651Z 30004KT 15/11 A3005 RMK A01 T01460113  RH  080%=      5-min Rain = 0
KWA1 120652Z 30004KT 15/11 A3005 RMK A01 T01460113  RH  080%=      5-min Rain = 0
KWA1 120653Z 30004KT 15/11 A3005 RMK A01 T01450113  RH  081%=      5-min Rain = 0
KWA1 120654Z 30004KT 15/11 A3005 RMK A01 T01450113  RH  081%=      5-min Rain = 0
KWA1 120655Z 30004KT 15/11 A3005 RMK A01 T01450113  RH  081%=      5-min Rain = 0
KWA1 120656Z 30004KT 15/11 A3005 RMK A01 T01450114  RH  081%=      5-min Rain = 0
KWA1 120657Z 30004KT 15/11 A3005 RMK A01 T01450113  RH  081%=      5-min Rain = 0
KWA1 120658Z 30004KT 15/11 A3005 RMK A01 T01450113  RH  081%=      5-min Rain = 0
KWA1 120659Z 30004KT 15/11 A3005 RMK A01 T01450113  RH  082%=      5-min Rain = 0
KWA1 120700Z 30004KT 15/11 A3005 RMK A01 T01450113  RH  081%=      5-min Rain = 0
KWA1 120701Z 30004KT 14/11 A3005 RMK A01 T01440112  RH  081%=      5-min Rain = 0
KWA1 120702Z 30003KT 14/11 A3005 RMK A01 T01440111  RH  081%=      5-min Rain = 0
KWA1 120703Z 30004KT 14/11 A3005 RMK A01 T01430111  RH  081%=      5-min Rain = 0
KWA1 120704Z 30004KT 14/11 A3005 RMK A01 T01430111  RH  081%=      5-min Rain = 0
KWA1 120705Z 30003KT 14/11 A3005 RMK A01 T01430111  RH  081%=      5-min Rain = 0
KWA1 120706Z 30003KT 14/11 A3005 RMK A01 T01440110  RH  080%=      5-min Rain = 0
KWA1 120707Z 30004KT 15/11 A3005 RMK A01 T01450111  RH  080%=      5-min Rain = 0
KWA1 120708Z 30004KT 15/11 A3005 RMK A01 T01450112  RH  080%=      5-min Rain = 0
KWA1 120709Z 30004KT 15/11 A3005 RMK A01 T01460112  RH  080%=      5-min Rain = 0
KWA1 120710Z 30004KT 15/11 A3005 RMK A01 T01470112  RH  080%=      5-min Rain = 0
KWA1 120711Z 30004KT 15/11 A3005 RMK A01 T01470112  RH  080%=      5-min Rain = 0
KWA1 120712Z 30004KT 15/11 A3005 RMK A01 T01470113  RH  080%=      5-min Rain = 0
KWA1 120713Z 30003KT 15/11 A3005 RMK A01 T01470113  RH  080%=      5-min Rain = 0
KWA1 120714Z 30003KT 15/11 A3005 RMK A01 T01470113  RH  080%=      5-min Rain = 0
KWA1 120715Z 30003KT 15/11 A3005 RMK A01 T01470112  RH  080%=      5-min Rain = 0
KWA1 120716Z 30003KT 15/11 A3005 RMK A01 T01470112  RH  079%=      5-min Rain = 0
KWA1 120717Z 31003KT 15/11 A3005 RMK A01 T01480112  RH  079%=      5-min Rain = 0
KWA1 120718Z 31003KT 15/11 A3005 RMK A01 T01480112  RH  079%=      5-min Rain = 0
KWA1 120719Z 31004KT 15/11 A3005 RMK A01 T01480112  RH  079%=      5-min Rain = 0
KWA1 120720Z 31004KT 15/11 A3005 RMK A01 T01480112  RH  079%=      5-min Rain = 0
KWA1 120721Z 31004KT 15/11 A3005 RMK A01 T01490113  RH  079%=      5-min Rain = 0
KWA1 120722Z 31004KT 15/11 A3005 RMK A01 T01480113  RH  079%=      5-min Rain = 0
KWA1 120723Z 31004KT 15/11 A3005 RMK A01 T01470113  RH  080%=      5-min Rain = 0
KWA1 120724Z 31004KT 15/11 A3005 RMK A01 T01480113  RH  080%=      5-min Rain = 0
KWA1 120725Z 31003KT 15/11 A3005 RMK A01 T01480112  RH  079%=      5-min Rain = 0
KWA1 120726Z 31004KT 15/11 A3005 RMK A01 T01480112  RH  079%=      5-min Rain = 0
KWA1 120727Z 31003KT 15/11 A3005 RMK A01 T01480112  RH  079%=      5-min Rain = 0
KWA1 120728Z 31003KT 15/11 A3005 RMK A01 T01480113  RH  079%=      5-min Rain = 0
KWA1 120729Z 31003KT 15/11 A3005 RMK A01 T01480113  RH  080%=      5-min Rain = 0
KWA1 120730Z 31003KT 15/11 A3005 RMK A01 T01480112  RH  079%=      5-min Rain = 0
KWA1 120731Z 30003KT 15/11 A3005 RMK A01 T01480112  RH  079%=      5-min Rain = 0
KWA1 120732Z 30003KT 15/11 A3005 RMK A01 T01470112  RH  080%=      5-min Rain = 0
KWA1 120733Z 31003KT 15/11 A3005 RMK A01 T01460112  RH  080%=      5-min Rain = 0
KWA1 120734Z 31003KT 15/11 A3004 RMK A01 T01460111  RH  080%=      5-min Rain = 0
KWA1 120735Z 31003KT 15/11 A3004 RMK A01 T01450111  RH  080%=      5-min Rain = 0
KWA1 120736Z 32002KT 15/11 A3004 RMK A01 T01450111  RH  080%=      5-min Rain = 0
KWA1 120737Z 32002KT 15/11 A3004 RMK A01 T01450111  RH  080%=      5-min Rain = 0
KWA1 120738Z 32002KT 15/11 A3004 RMK A01 T01450111  RH  080%=      5-min Rain = 0
KWA1 120739Z 32002KT 15/11 A3004 RMK A01 T01450111  RH  080%=      5-min Rain = 0
KWA1 120740Z 32002KT 15/11 A3004 RMK A01 T01450112  RH  080%=      5-min Rain = 0
KWA1 120741Z 32002KT 15/11 A3004 RMK A01 T01450111  RH  080%=      5-min Rain = 0
KWA1 120742Z 32002KT 15/11 A3004 RMK A01 T01450111  RH  080%=      5-min Rain = 0
KWA1 120743Z 32002KT 14/11 A3004 RMK A01 T01440110  RH  080%=      5-min Rain = 0
KWA1 120744Z 32002KT 14/11 A3004 RMK A01 T01440110  RH  080%=      5-min Rain = 0
KWA1 120745Z 32001KT 15/11 A3004 RMK A01 T01450110  RH  080%=      5-min Rain = 0
KWA1 120746Z 32001KT 14/11 A3004 RMK A01 T01440110  RH  080%=      5-min Rain = 0
KWA1 120747Z 32001KT 14/11 A3004 RMK A01 T01440111  RH  081%=      5-min Rain = 0
KWA1 120748Z 32001KT 14/11 A3004 RMK A01 T01440111  RH  081%=      5-min Rain = 0
KWA1 120749Z 32002KT 14/11 A3004 RMK A01 T01440111  RH  081%=      5-min Rain = 0
KWA1 120750Z 33001KT 14/11 A3004 RMK A01 T01440110  RH  080%=      5-min Rain = 0
KWA1 120751Z 33002KT 14/11 A3004 RMK A01 T01440110  RH  080%=      5-min Rain = 0
KWA1 120752Z 33002KT 15/11 A3004 RMK A01 T01450110  RH  080%=      5-min Rain = 0
KWA1 120753Z 31002KT 15/11 A3004 RMK A01 T01450111  RH  080%=      5-min Rain = 0
KWA1 120754Z 29002KT 15/11 A3004 RMK A01 T01450111  RH  080%=      5-min Rain = 0
KWA1 120755Z 30002KT 15/11 A3004 RMK A01 T01460111  RH  080%=      5-min Rain = 0
KWA1 120756Z 31002KT 15/11 A3004 RMK A01 T01460112  RH  080%=      5-min Rain = 0
KWA1 120757Z 31002KT 15/11 A3004 RMK A01 T01460112  RH  080%=      5-min Rain = 0
KWA1 120758Z 29002KT 14/11 A3004 RMK A01 T01440110  RH  080%=      5-min Rain = 0
KWA1 120759Z 29002KT 14/11 A3004 RMK A01 T01420110  RH  081%=      5-min Rain = 0
KWA1 120800Z 30002KT 14/11 A3004 RMK A01 T01410110  RH  082%=      5-min Rain = 0
KWA1 120801Z 31002KT 14/11 A3004 RMK A01 T01420110  RH  081%=      5-min Rain = 0
KWA1 120802Z 31002KT 14/11 A3004 RMK A01 T01440111  RH  081%=      5-min Rain = 0
KWA1 120803Z 31001KT 15/11 A3004 RMK A01 T01450111  RH  080%=      5-min Rain = 0
KWA1 120804Z 31001KT 14/11 A3004 RMK A01 T01430110  RH  080%=      5-min Rain = 0
KWA1 120805Z 32002KT 14/11 A3004 RMK A01 T01440110  RH  080%=      5-min Rain = 0
KWA1 120806Z 32002KT 15/11 A3004 RMK A01 T01470111  RH  079%=      5-min Rain = 0
KWA1 120807Z 32001KT 15/11 A3004 RMK A01 T01470111  RH  079%=      5-min Rain = 0
KWA1 120808Z 32001KT 15/11 A3004 RMK A01 T01460111  RH  079%=      5-min Rain = 0
KWA1 120809Z 32001KT 15/11 A3004 RMK A01 T01460111  RH  079%=      5-min Rain = 0
KWA1 120810Z 32001KT 15/11 A3004 RMK A01 T01460110  RH  079%=      5-min Rain = 0
KWA1 120811Z 32001KT 15/11 A3004 RMK A01 T01460111  RH  079%=      5-min Rain = 0
KWA1 120812Z 31001KT 15/11 A3004 RMK A01 T01460111  RH  079%=      5-min Rain = 0
KWA1 120813Z 31000KT 14/11 A3004 RMK A01 T01440110  RH  080%=      5-min Rain = 0
KWA1 120814Z 32001KT 14/11 A3004 RMK A01 T01430109  RH  080%=      5-min Rain = 0
KWA1 120815Z 32002KT 14/11 A3004 RMK A01 T01430110  RH  080%=      5-min Rain = 0
KWA1 120816Z 32001KT 14/11 A3004 RMK A01 T01430110  RH  081%=      5-min Rain = 0
KWA1 120817Z 32001KT 14/11 A3004 RMK A01 T01420109  RH  081%=      5-min Rain = 0
KWA1 120818Z 32001KT 14/11 A3004 RMK A01 T01410109  RH  081%=      5-min Rain = 0
KWA1 120819Z 33001KT 14/11 A3004 RMK A01 T01400109  RH  081%=      5-min Rain = 0
KWA1 120820Z 34001KT 14/11 A3004 RMK A01 T01390109  RH  082%=      5-min Rain = 0
KWA1 120821Z 34001KT 14/11 A3004 RMK A01 T01390109  RH  082%=      5-min Rain = 0
KWA1 120822Z 34001KT 14/11 A3004 RMK A01 T01400109  RH  082%=      5-min Rain = 0
KWA1 120823Z 34000KT 14/11 A3004 RMK A01 T01400109  RH  082%=      5-min Rain = 0
KWA1 120824Z 34001KT 14/11 A3004 RMK A01 T01390107  RH  081%=      5-min Rain = 0
KWA1 120825Z 34001KT 14/11 A3004 RMK A01 T01380107  RH  081%=      5-min Rain = 0
KWA1 120826Z 34001KT 14/11 A3004 RMK A01 T01380108  RH  082%=      5-min Rain = 0
KWA1 120827Z 34001KT 14/11 A3004 RMK A01 T01380108  RH  082%=      5-min Rain = 0
KWA1 120828Z 34001KT 14/11 A3004 RMK A01 T01380109  RH  082%=      5-min Rain = 0
KWA1 120829Z 35001KT 14/11 A3004 RMK A01 T01380109  RH  082%=      5-min Rain = 0
KWA1 120830Z 35001KT 14/11 A3004 RMK A01 T01380108  RH  082%=      5-min Rain = 0
KWA1 120831Z 35001KT 14/11 A3004 RMK A01 T01370108  RH  082%=      5-min Rain = 0
KWA1 120832Z 36001KT 14/11 A3004 RMK A01 T01370107  RH  082%=      5-min Rain = 0
KWA1 120833Z 00001KT 14/11 A3004 RMK A01 T01360106  RH  082%=      5-min Rain = 0
KWA1 120834Z 00000KT 14/11 A3004 RMK A01 T01350105  RH  082%=      5-min Rain = 0
KWA1 120835Z 00001KT 14/11 A3004 RMK A01 T01350106  RH  083%=      5-min Rain = 0
KWA1 120836Z 00000KT 14/11 A3004 RMK A01 T01350106  RH  083%=      5-min Rain = 0
KWA1 120837Z 25001KT 14/11 A3004 RMK A01 T01350106  RH  083%=      5-min Rain = 0
KWA1 120838Z 25001KT 13/11 A3004 RMK A01 T01340105  RH  082%=      5-min Rain = 0
KWA1 120839Z 25001KT 13/11 A3004 RMK A01 T01340105  RH  082%=      5-min Rain = 0
KWA1 120840Z 25000KT 14/11 A3004 RMK A01 T01350107  RH  083%=      5-min Rain = 0
KWA1 120841Z 00000KT 14/11 A3004 RMK A01 T01360107  RH  083%=      5-min Rain = 0
KWA1 120842Z 00000KT 14/11 A3004 RMK A01 T01370107  RH  082%=      5-min Rain = 0
KWA1 120843Z 00000KT 14/11 A3004 RMK A01 T01370106  RH  082%=      5-min Rain = 0
KWA1 120844Z 00000KT 14/11 A3004 RMK A01 T01370105  RH  081%=      5-min Rain = 0
KWA1 120845Z 00000KT 14/11 A3003 RMK A01 T01370106  RH  081%=      5-min Rain = 0
KWA1 120846Z 00000KT 14/11 A3003 RMK A01 T01370106  RH  081%=      5-min Rain = 0
KWA1 120847Z 19000KT 14/10 A3003 RMK A01 T01370104  RH  081%=      5-min Rain = 0
KWA1 120848Z 19001KT 14/10 A3003 RMK A01 T01350103  RH  081%=      5-min Rain = 0
KWA1 120849Z 19000KT 13/10 A3003 RMK A01 T01340104  RH  082%=      5-min Rain = 0
KWA1 120850Z 22002KT 13/11 A3003 RMK A01 T01330106  RH  083%=      5-min Rain = 0
KWA1 120851Z 22002KT 13/11 A3003 RMK A01 T01320106  RH  084%=      5-min Rain = 0
KWA1 120852Z 24002KT 13/11 A3003 RMK A01 T01310107  RH  085%=      5-min Rain = 0
KWA1 120853Z 24002KT 13/11 A3003 RMK A01 T01310107  RH  085%=      5-min Rain = 0
KWA1 120854Z 23002KT 13/11 A3003 RMK A01 T01300107  RH  086%=      5-min Rain = 0
KWA1 120855Z 23002KT 13/11 A3003 RMK A01 T01300107  RH  086%=      5-min Rain = 0
KWA1 120856Z 24001KT 13/11 A3003 RMK A01 T01290107  RH  086%=      5-min Rain = 0
KWA1 120857Z 24001KT 13/11 A3003 RMK A01 T01290108  RH  087%=      5-min Rain = 0
KWA1 120858Z 25002KT 13/11 A3003 RMK A01 T01290107  RH  087%=      5-min Rain = 0
KWA1 120859Z 25002KT 13/11 A3003 RMK A01 T01290107  RH  087%=      5-min Rain = 0
KWA1 120900Z 26002KT 13/11 A3003 RMK A01 T01280107  RH  087%=      5-min Rain = 0
KWA1 120901Z 25003KT 13/11 A3003 RMK A01 T01290108  RH  087%=      5-min Rain = 0
KWA1 120902Z 23004KT 13/11 A3003 RMK A01 T01280107  RH  087%=      5-min Rain = 0
KWA1 120903Z 24004KT 13/11 A3003 RMK A01 T01290108  RH  087%=      5-min Rain = 0
KWA1 120904Z 24004KT 13/11 A3003 RMK A01 T01300109  RH  087%=      5-min Rain = 0
KWA1 120905Z 24004KT 13/11 A3003 RMK A01 T01320109  RH  086%=      5-min Rain = 0
KWA1 120906Z 24004KT 13/11 A3003 RMK A01 T01320109  RH  086%=      5-min Rain = 0
KWA1 120907Z 24004KT 13/11 A3003 RMK A01 T01310109  RH  086%=      5-min Rain = 0
KWA1 120908Z 24004KT 13/11 A3003 RMK A01 T01310109  RH  087%=      5-min Rain = 0
KWA1 120909Z 24004KT 13/11 A3003 RMK A01 T01310109  RH  087%=      5-min Rain = 0
KWA1 120910Z 24004KT 13/11 A3003 RMK A01 T01310109  RH  087%=      5-min Rain = 0
KWA1 120911Z 24004KT 13/11 A3003 RMK A01 T01300109  RH  087%=      5-min Rain = 0
KWA1 120912Z 24004KT 13/11 A3003 RMK A01 T01300109  RH  087%=      5-min Rain = 0
KWA1 120913Z 24004KT 13/11 A3003 RMK A01 T01300109  RH  087%=      5-min Rain = 0
KWA1 120914Z 25004KT 13/11 A3003 RMK A01 T01290109  RH  088%=      5-min Rain = 0
KWA1 120915Z 25004KT 13/11 A3003 RMK A01 T01290110  RH  088%=      5-min Rain = 0
KWA1 120916Z 25003KT 13/11 A3003 RMK A01 T01280109  RH  088%=      5-min Rain = 0
KWA1 120917Z 25003KT 13/11 A3003 RMK A01 T01280110  RH  088%=      5-min Rain = 0
KWA1 120918Z 25004KT 13/11 A3003 RMK A01 T01290109  RH  088%=      5-min Rain = 0
KWA1 120919Z 24004KT 13/11 A3003 RMK A01 T01290109  RH  088%=      5-min Rain = 0
KWA1 120920Z 24004KT 13/11 A3003 RMK A01 T01290108  RH  087%=      5-min Rain = 0
KWA1 120921Z 24004KT 13/11 A3003 RMK A01 T01290108  RH  087%=      5-min Rain = 0
KWA1 120922Z 24004KT 13/11 A3003 RMK A01 T01290108  RH  087%=      5-min Rain = 0
KWA1 120923Z 24004KT 13/11 A3003 RMK A01 T01290107  RH  087%=      5-min Rain = 0
KWA1 120924Z 24004KT 13/11 A3003 RMK A01 T01280107  RH  087%=      5-min Rain = 0
KWA1 120925Z 23004KT 13/11 A3003 RMK A01 T01280107  RH  087%=      5-min Rain = 0
KWA1 120926Z 23004KT 13/11 A3003 RMK A01 T01270107  RH  088%=      5-min Rain = 0
KWA1 120927Z 24004KT 13/11 A3003 RMK A01 T01270108  RH  088%=      5-min Rain = 0
KWA1 120928Z 24004KT 13/11 A3003 RMK A01 T01270108  RH  088%=      5-min Rain = 0
KWA1 120929Z 24004KT 13/11 A3003 RMK A01 T01270109  RH  089%=      5-min Rain = 0
KWA1 120930Z 24004KT 13/11 A3003 RMK A01 T01270109  RH  089%=      5-min Rain = 0
KWA1 120931Z 25004KT 13/11 A3003 RMK A01 T01270109  RH  089%=      5-min Rain = 0
KWA1 120932Z 25004KT 13/11 A3003 RMK A01 T01270109  RH  089%=      5-min Rain = 0
KWA1 120933Z 25004KT 13/11 A3003 RMK A01 T01270109  RH  089%=      5-min Rain = 0
KWA1 120934Z 25004KT 13/11 A3003 RMK A01 T01270109  RH  089%=      5-min Rain = 0
KWA1 120935Z 25005KT 13/11 A3003 RMK A01 T01260109  RH  089%=      5-min Rain = 0
KWA1 120936Z 25005KT 13/11 A3003 RMK A01 T01260109  RH  089%=      5-min Rain = 0
KWA1 120937Z 25004KT 13/11 A3003 RMK A01 T01260109  RH  089%=      5-min Rain = 0
KWA1 120938Z 24004KT 13/11 A3003 RMK A01 T01260108  RH  089%=      5-min Rain = 0
KWA1 120939Z 24004KT 13/11 A3003 RMK A01 T01260108  RH  089%=      5-min Rain = 0
KWA1 120940Z 24004KT 13/11 A3003 RMK A01 T01260107  RH  088%=      5-min Rain = 0
KWA1 120941Z 24004KT 13/11 A3003 RMK A01 T01260107  RH  088%=      5-min Rain = 0
KWA1 120942Z 24004KT 13/11 A3003 RMK A01 T01260107  RH  088%=      5-min Rain = 0
KWA1 120943Z 25004KT 13/11 A3003 RMK A01 T01270107  RH  087%=      5-min Rain = 0
KWA1 120944Z 25004KT 13/11 A3003 RMK A01 T01280107  RH  087%=      5-min Rain = 0
KWA1 120945Z 25004KT 13/11 A3003 RMK A01 T01280106  RH  087%=      5-min Rain = 0
KWA1 120946Z 25004KT 13/11 A3003 RMK A01 T01280106  RH  087%=      5-min Rain = 0
KWA1 120947Z 25003KT 13/11 A3003 RMK A01 T01280106  RH  087%=      5-min Rain = 0
KWA1 120948Z 25003KT 13/11 A3003 RMK A01 T01270106  RH  087%=      5-min Rain = 0
KWA1 120949Z 25003KT 13/11 A3003 RMK A01 T01270106  RH  087%=      5-min Rain = 0
KWA1 120950Z 25003KT 13/11 A3003 RMK A01 T01270105  RH  087%=      5-min Rain = 0
KWA1 120951Z 25003KT 13/11 A3003 RMK A01 T01270106  RH  087%=      5-min Rain = 0
KWA1 120952Z 25003KT 13/11 A3003 RMK A01 T01270105  RH  087%=      5-min Rain = 0
KWA1 120953Z 25003KT 13/11 A3003 RMK A01 T01270105  RH  087%=      5-min Rain = 0
KWA1 120954Z 26002KT 13/11 A3003 RMK A01 T01270106  RH  087%=      5-min Rain = 0
KWA1 120955Z 26002KT 13/11 A3003 RMK A01 T01270106  RH  087%=      5-min Rain = 0
KWA1 120956Z 25002KT 13/11 A3003 RMK A01 T01280106  RH  087%=      5-min Rain = 0
KWA1 120957Z 25002KT 13/11 A3003 RMK A01 T01280106  RH  086%=      5-min Rain = 0
KWA1 120958Z 25003KT 13/11 A3003 RMK A01 T01280106  RH  086%=      5-min Rain = 0
KWA1 120959Z 25002KT 13/11 A3003 RMK A01 T01280105  RH  086%=      5-min Rain = 0
KWA1 121000Z 24003KT 13/11 A3003 RMK A01 T01280106  RH  086%=      5-min Rain = 0
KWA1 121001Z 24003KT 13/11 A3003 RMK A01 T01280105  RH  086%=      5-min Rain = 0
KWA1 121002Z 24003KT 13/11 A3003 RMK A01 T01270106  RH  087%=      5-min Rain = 0
KWA1 121003Z 24003KT 13/11 A3003 RMK A01 T01270106  RH  087%=      5-min Rain = 0
KWA1 121004Z 24003KT 13/11 A3003 RMK A01 T01270107  RH  087%=      5-min Rain = 0
KWA1 121005Z 24003KT 13/11 A3003 RMK A01 T01270106  RH  087%=      5-min Rain = 0
KWA1 121006Z 25003KT 13/11 A3003 RMK A01 T01270106  RH  087%=      5-min Rain = 0
KWA1 121007Z 25004KT 13/11 A3003 RMK A01 T01270106  RH  087%=      5-min Rain = 0
KWA1 121008Z 25004KT 13/11 A3003 RMK A01 T01270106  RH  087%=      5-min Rain = 0
KWA1 121009Z 25004KT 13/11 A3002 RMK A01 T01270106  RH  087%=      5-min Rain = 0
KWA1 121010Z 25005KT 13/11 A3003 RMK A01 T01270105  RH  087%=      5-min Rain = 0
KWA1 121011Z 25005KT 13/11 A3003 RMK A01 T01260105  RH  087%=      5-min Rain = 0
KWA1 121012Z 25005KT 13/10 A3003 RMK A01 T01250104  RH  087%=      5-min Rain = 0
KWA1 121013Z 25005KT 13/10 A3003 RMK A01 T01250104  RH  087%=      5-min Rain = 0
KWA1 121014Z 25005KT 13/10 A3002 RMK A01 T01250104  RH  087%=      5-min Rain = 0
KWA1 121015Z 25005KT 13/10 A3002 RMK A01 T01250104  RH  087%=      5-min Rain = 0
KWA1 121016Z 25005KT 13/10 A3002 RMK A01 T01250104  RH  087%=      5-min Rain = 0
KWA1 121017Z 25005KT 13/10 A3002 RMK A01 T01250104  RH  087%=      5-min Rain = 0
KWA1 121018Z 25005KT 13/10 A3002 RMK A01 T01260104  RH  087%=      5-min Rain = 0
KWA1 121019Z 25005KT 13/10 A3002 RMK A01 T01260103  RH  086%=      5-min Rain = 0
KWA1 121020Z 25004KT 13/10 A3002 RMK A01 T01260104  RH  086%=      5-min Rain = 0
KWA1 121021Z 25004KT 13/10 A3002 RMK A01 T01250103  RH  086%=      5-min Rain = 0
KWA1 121022Z 25005KT 13/10 A3002 RMK A01 T01250103  RH  087%=      5-min Rain = 0
KWA1 121023Z 25005KT 12/10 A3002 RMK A01 T01240103  RH  087%=      5-min Rain = 0
KWA1 121024Z 25005KT 12/10 A3002 RMK A01 T01240103  RH  087%=      5-min Rain = 0
KWA1 121025Z 26005KT 13/10 A3003 RMK A01 T01250104  RH  087%=      5-min Rain = 0
KWA1 121026Z 26005KT 12/10 A3003 RMK A01 T01240103  RH  087%=      5-min Rain = 0
KWA1 121027Z 26005KT 13/10 A3003 RMK A01 T01250104  RH  087%=      5-min Rain = 0
KWA1 121028Z 26005KT 13/10 A3003 RMK A01 T01250103  RH  087%=      5-min Rain = 0
KWA1 121029Z 26005KT 12/10 A3003 RMK A01 T01240103  RH  087%=      5-min Rain = 0
KWA1 121030Z 27005KT 13/10 A3003 RMK A01 T01250103  RH  087%=      5-min Rain = 0
KWA1 121031Z 27005KT 13/10 A3003 RMK A01 T01250103  RH  086%=      5-min Rain = 0
KWA1 121032Z 26005KT 13/10 A3003 RMK A01 T01250103  RH  086%=      5-min Rain = 0
KWA1 121033Z 26004KT 13/10 A3003 RMK A01 T01250103  RH  087%=      5-min Rain = 0
KWA1 121034Z 26004KT 12/10 A3003 RMK A01 T01240102  RH  087%=      5-min Rain = 0
KWA1 121035Z 26004KT 12/10 A3003 RMK A01 T01240103  RH  087%=      5-min Rain = 0
KWA1 121036Z 26004KT 12/10 A3003 RMK A01 T01240103  RH  087%=      5-min Rain = 0
KWA1 121037Z 26004KT 12/10 A3003 RMK A01 T01230103  RH  087%=      5-min Rain = 0
KWA1 121038Z 26004KT 12/10 A3003 RMK A01 T01230102  RH  087%=      5-min Rain = 0
KWA1 121039Z 26004KT 12/10 A3003 RMK A01 T01230103  RH  087%=      5-min Rain = 0
KWA1 121040Z 26005KT 12/10 A3003 RMK A01 T01230103  RH  087%=      5-min Rain = 0
KWA1 121041Z 26005KT 12/10 A3003 RMK A01 T01230103  RH  087%=      5-min Rain = 0
KWA1 121042Z 26005KT 12/10 A3003 RMK A01 T01230102  RH  087%=      5-min Rain = 0
KWA1 121043Z 26005KT 12/10 A3003 RMK A01 T01230103  RH  087%=      5-min Rain = 0
KWA1 121044Z 26005KT 12/10 A3003 RMK A01 T01230102  RH  087%=      5-min Rain = 0
KWA1 121045Z 26005KT 12/10 A3003 RMK A01 T01240103  RH  087%=      5-min Rain = 0
KWA1 121046Z 26006KT 12/10 A3003 RMK A01 T01240103  RH  087%=      5-min Rain = 0
KWA1 121047Z 26006KT 12/10 A3003 RMK A01 T01240103  RH  087%=      5-min Rain = 0
KWA1 121048Z 26006KT 13/10 A3003 RMK A01 T01250103  RH  087%=      5-min Rain = 0
KWA1 121049Z 26006KT 13/10 A3003 RMK A01 T01250103  RH  086%=      5-min Rain = 0
KWA1 121050Z 26006KT 13/10 A3003 RMK A01 T01260103  RH  086%=      5-min Rain = 0
KWA1 121051Z 26006KT 13/10 A3003 RMK A01 T01270103  RH  086%=      5-min Rain = 0
KWA1 121052Z 26006KT 13/10 A3003 RMK A01 T01270103  RH  086%=      5-min Rain = 0
KWA1 121053Z 26006KT 13/10 A3003 RMK A01 T01270103  RH  085%=      5-min Rain = 0
KWA1 121054Z 26005KT 13/10 A3003 RMK A01 T01270104  RH  086%=      5-min Rain = 0
KWA1 121055Z 26005KT 13/10 A3003 RMK A01 T01270104  RH  086%=      5-min Rain = 0
KWA1 121056Z 26005KT 13/10 A3003 RMK A01 T01270103  RH  086%=      5-min Rain = 0
KWA1 121057Z 26005KT 13/10 A3003 RMK A01 T01270103  RH  086%=      5-min Rain = 0
KWA1 121058Z 26005KT 13/10 A3003 RMK A01 T01270103  RH  086%=      5-min Rain = 0
KWA1 121059Z 26005KT 13/10 A3003 RMK A01 T01260103  RH  086%=      5-min Rain = 0
KWA1 121100Z 26004KT 13/10 A3003 RMK A01 T01260103  RH  086%=      5-min Rain = 0
KWA1 121101Z 26004KT 13/10 A3003 RMK A01 T01260103  RH  086%=      5-min Rain = 0
KWA1 121102Z 26004KT 13/10 A3003 RMK A01 T01260104  RH  086%=      5-min Rain = 0
KWA1 121103Z 26004KT 13/10 A3003 RMK A01 T01250103  RH  087%=      5-min Rain = 0
KWA1 121104Z 26004KT 13/10 A3003 RMK A01 T01250103  RH  087%=      5-min Rain = 0
KWA1 121105Z 26004KT 13/10 A3003 RMK A01 T01250103  RH  087%=      5-min Rain = 0
KWA1 121106Z 26004KT 12/10 A3003 RMK A01 T01240103  RH  087%=      5-min Rain = 0
KWA1 121107Z 26004KT 12/10 A3003 RMK A01 T01240103  RH  087%=      5-min Rain = 0
KWA1 121108Z 26005KT 12/10 A3003 RMK A01 T01240102  RH  087%=      5-min Rain = 0
KWA1 121109Z 26005KT 12/10 A3003 RMK A01 T01240102  RH  087%=      5-min Rain = 0
KWA1 121110Z 26004KT 12/10 A3003 RMK A01 T01240102  RH  087%=      5-min Rain = 0
KWA1 121111Z 26004KT 12/10 A3003 RMK A01 T01240102  RH  087%=      5-min Rain = 0
KWA1 121112Z 26004KT 12/10 A3004 RMK A01 T01220102  RH  087%=      5-min Rain = 0
KWA1 121113Z 26004KT 12/10 A3004 RMK A01 T01220102  RH  088%=      5-min Rain = 0
KWA1 121114Z 26004KT 12/10 A3004 RMK A01 T01220102  RH  088%=      5-min Rain = 0
KWA1 121115Z 26004KT 12/10 A3004 RMK A01 T01210102  RH  088%=      5-min Rain = 0
KWA1 121116Z 26004KT 12/10 A3004 RMK A01 T01200101  RH  088%=      5-min Rain = 0
KWA1 121117Z 26004KT 12/10 A3004 RMK A01 T01200101  RH  088%=      5-min Rain = 0
KWA1 121118Z 26004KT 12/10 A3004 RMK A01 T01200101  RH  088%=      5-min Rain = 0
KWA1 121119Z 26004KT 12/10 A3004 RMK A01 T01200101  RH  088%=      5-min Rain = 0
KWA1 121120Z 26004KT 12/10 A3004 RMK A01 T01190100  RH  088%=      5-min Rain = 0
KWA1 121121Z 26005KT 12/10 A3004 RMK A01 T01190100  RH  088%=      5-min Rain = 0
KWA1 121122Z 26005KT 12/10 A3004 RMK A01 T01190101  RH  089%=      5-min Rain = 0
KWA1 121123Z 26005KT 12/10 A3004 RMK A01 T01180100  RH  089%=      5-min Rain = 0
KWA1 121124Z 26005KT 12/10 A3004 RMK A01 T01190101  RH  089%=      5-min Rain = 0
KWA1 121125Z 26005KT 12/10 A3004 RMK A01 T01190100  RH  089%=      5-min Rain = 0
KWA1 121126Z 26005KT 12/10 A3004 RMK A01 T01190100  RH  089%=      5-min Rain = 0
KWA1 121127Z 26005KT 12/10 A3004 RMK A01 T01190100  RH  088%=      5-min Rain = 0
KWA1 121128Z 26005KT 12/10 A3004 RMK A01 T01190101  RH  088%=      5-min Rain = 0
KWA1 121129Z 26005KT 12/10 A3004 RMK A01 T01190100  RH  088%=      5-min Rain = 0
KWA1 121130Z 27005KT 12/10 A3004 RMK A01 T01190100  RH  088%=      5-min Rain = 0
KWA1 121131Z 27004KT 12/10 A3004 RMK A01 T01190100  RH  088%=      5-min Rain = 0
KWA1 121132Z 27004KT 12/10 A3004 RMK A01 T01190100  RH  088%=      5-min Rain = 0
KWA1 121133Z 27004KT 12/10 A3004 RMK A01 T01190100  RH  088%=      5-min Rain = 0
KWA1 121134Z 28004KT 12/10 A3004 RMK A01 T01190100  RH  089%=      5-min Rain = 0
KWA1 121135Z 28005KT 12/10 A3004 RMK A01 T01180100  RH  089%=      5-min Rain = 0
KWA1 121136Z 27004KT 12/10 A3004 RMK A01 T01190100  RH  088%=      5-min Rain = 0
KWA1 121137Z 27004KT 12/10 A3004 RMK A01 T01190100  RH  088%=      5-min Rain = 0
KWA1 121138Z 28004KT 12/10 A3004 RMK A01 T01200100  RH  088%=      5-min Rain = 0
KWA1 121139Z 28005KT 12/10 A3004 RMK A01 T01190100  RH  088%=      5-min Rain = 0
KWA1 121140Z 28004KT 12/10 A3004 RMK A01 T01200100  RH  088%=      5-min Rain = 0
KWA1 121141Z 27004KT 12/10 A3004 RMK A01 T01190100  RH  088%=      5-min Rain = 0
KWA1 121142Z 27004KT 12/10 A3004 RMK A01 T01200100  RH  088%=      5-min Rain = 0
KWA1 121143Z 27005KT 12/10 A3004 RMK A01 T01200100  RH  088%=      5-min Rain = 0
KWA1 121144Z 27005KT 12/10 A3004 RMK A01 T01200101  RH  088%=      5-min Rain = 0
KWA1 121145Z 27005KT 12/10 A3004 RMK A01 T01200101  RH  088%=      5-min Rain = 0
KWA1 121146Z 27004KT 12/10 A3004 RMK A01 T01200101  RH  088%=      5-min Rain = 0
KWA1 121147Z 27004KT 12/10 A3004 RMK A01 T01190100  RH  088%=      5-min Rain = 0
KWA1 121148Z 27004KT 12/10 A3004 RMK A01 T01190101  RH  088%=      5-min Rain = 0
KWA1 121149Z 27004KT 12/10 A3004 RMK A01 T01190101  RH  088%=      5-min Rain = 0
KWA1 121150Z 28005KT 12/10 A3004 RMK A01 T01190101  RH  089%=      5-min Rain = 0
KWA1 121151Z 28005KT 12/10 A3004 RMK A01 T01190101  RH  088%=      5-min Rain = 0
KWA1 121152Z 28005KT 12/10 A3004 RMK A01 T01190100  RH  088%=      5-min Rain = 0
KWA1 121153Z 27005KT 12/10 A3004 RMK A01 T01190101  RH  088%=      5-min Rain = 0
KWA1 121154Z 27005KT 12/10 A3004 RMK A01 T01200101  RH  088%=      5-min Rain = 0
KWA1 121155Z 27005KT 12/10 A3004 RMK A01 T01200101  RH  088%=      5-min Rain = 0
KWA1 121156Z 27005KT 12/10 A3004 RMK A01 T01200101  RH  088%=      5-min Rain = 0
KWA1 121157Z 27005KT 12/10 A3004 RMK A01 T01210101  RH  088%=      5-min Rain = 0
KWA1 121158Z 27005KT 12/10 A3004 RMK A01 T01210101  RH  088%=      5-min Rain = 0
KWA1 121159Z 27005KT 12/10 A3004 RMK A01 T01210101  RH  088%=      5-min Rain = 0
KWA1 121200Z 27005KT 12/10 A3005 RMK A01 T01210101  RH  088%=      5-min Rain = 0
KWA1 121201Z 27005KT 12/10 A3005 RMK A01 T01210101  RH  088%=      5-min Rain = 0
KWA1 121202Z 27005KT 12/10 A3005 RMK A01 T01200101  RH  088%=      5-min Rain = 0
KWA1 121203Z 27005KT 12/10 A3005 RMK A01 T01200101  RH  088%=      5-min Rain = 0
KWA1 121204Z 27005KT 12/10 A3005 RMK A01 T01200101  RH  088%=      5-min Rain = 0
KWA1 121205Z 27004KT 12/10 A3005 RMK A01 T01200101  RH  088%=      5-min Rain = 0
KWA1 121206Z 27004KT 12/10 A3005 RMK A01 T01190101  RH  088%=      5-min Rain = 0
KWA1 121207Z 27004KT 12/10 A3005 RMK A01 T01190101  RH  089%=      5-min Rain = 0
KWA1 121208Z 27004KT 12/10 A3005 RMK A01 T01190101  RH  089%=      5-min Rain = 0
KWA1 121209Z 26004KT 12/10 A3005 RMK A01 T01190101  RH  089%=      5-min Rain = 0
KWA1 121210Z 26003KT 12/10 A3005 RMK A01 T01190101  RH  089%=      5-min Rain = 0
KWA1 121211Z 26003KT 12/10 A3005 RMK A01 T01180100  RH  089%=      5-min Rain = 0
KWA1 121212Z 26003KT 12/10 A3005 RMK A01 T01180100  RH  089%=      5-min Rain = 0
KWA1 121213Z 26003KT 12/10 A3005 RMK A01 T01170100  RH  089%=      5-min Rain = 0
KWA1 121214Z 26003KT 12/10 A3005 RMK A01 T01170100  RH  089%=      5-min Rain = 0
KWA1 121215Z 26003KT 12/10 A3005 RMK A01 T01160099  RH  089%=      5-min Rain = 0
KWA1 121216Z 26003KT 12/10 A3005 RMK A01 T01160099  RH  089%=      5-min Rain = 0
KWA1 121217Z 26003KT 12/10 A3005 RMK A01 T01150099  RH  090%=      5-min Rain = 0
KWA1 121218Z 26003KT 12/10 A3005 RMK A01 T01150099  RH  090%=      5-min Rain = 0
KWA1 121219Z 27003KT 11/10 A3005 RMK A01 T01140099  RH  090%=      5-min Rain = 0
KWA1 121220Z 27003KT 11/10 A3005 RMK A01 T01140099  RH  090%=      5-min Rain = 0
KWA1 121221Z 27003KT 11/10 A3005 RMK A01 T01140099  RH  090%=      5-min Rain = 0
KWA1 121222Z 27004KT 12/10 A3005 RMK A01 T01150099  RH  090%=      5-min Rain = 0
KWA1 121223Z 26004KT 12/10 A3005 RMK A01 T01150099  RH  090%=      5-min Rain = 0
KWA1 121224Z 26004KT 12/10 A3005 RMK A01 T01150099  RH  090%=      5-min Rain = 0
KWA1 121225Z 26004KT 11/10 A3005 RMK A01 T01140099  RH  090%=      5-min Rain = 0
KWA1 121226Z 26004KT 11/10 A3005 RMK A01 T01140098  RH  090%=      5-min Rain = 0
KWA1 121227Z 26004KT 11/10 A3005 RMK A01 T01140098  RH  090%=      5-min Rain = 0
KWA1 121228Z 26005KT 11/10 A3005 RMK A01 T01140099  RH  090%=      5-min Rain = 0
KWA1 121229Z 26005KT 11/10 A3005 RMK A01 T01140099  RH  090%=      5-min Rain = 0
KWA1 121230Z 26005KT 11/10 A3005 RMK A01 T01140099  RH  090%=      5-min Rain = 0
KWA1 121231Z 26006KT 11/10 A3005 RMK A01 T01140099  RH  090%=      5-min Rain = 0
KWA1 121232Z 26006KT 11/10 A3005 RMK A01 T01140099  RH  091%=      5-min Rain = 0
KWA1 121233Z 26005KT 11/10 A3005 RMK A01 T01140099  RH  091%=      5-min Rain = 0
KWA1 121234Z 26005KT 11/10 A3005 RMK A01 T01140100  RH  091%=      5-min Rain = 0
KWA1 121235Z 26005KT 11/10 A3005 RMK A01 T01140100  RH  091%=      5-min Rain = 0
KWA1 121236Z 26006KT 11/10 A3005 RMK A01 T01140100  RH  091%=      5-min Rain = 0
KWA1 121237Z 26006KT 12/10 A3005 RMK A01 T01150101  RH  091%=      5-min Rain = 0
KWA1 121238Z 25006KT 12/10 A3005 RMK A01 T01160102  RH  091%=      5-min Rain = 0
KWA1 121239Z 25005KT 12/10 A3005 RMK A01 T01160102  RH  091%=      5-min Rain = 0
KWA1 121240Z 25005KT 12/10 A3005 RMK A01 T01170102  RH  091%=      5-min Rain = 0
KWA1 121241Z 25005KT 12/10 A3005 RMK A01 T01170102  RH  091%=      5-min Rain = 0
KWA1 121242Z 25005KT 12/10 A3005 RMK A01 T01170102  RH  091%=      5-min Rain = 0
KWA1 121243Z 25005KT 12/10 A3005 RMK A01 T01170102  RH  090%=      5-min Rain = 0
KWA1 121244Z 25005KT 12/10 A3005 RMK A01 T01170102  RH  090%=      5-min Rain = 0
KWA1 121245Z 25005KT 12/10 A3005 RMK A01 T01170102  RH  090%=      5-min Rain = 0
KWA1 121246Z 25005KT 12/10 A3006 RMK A01 T01180102  RH  090%=      5-min Rain = 0
KWA1 121247Z 25005KT 12/10 A3006 RMK A01 T01180103  RH  090%=      5-min Rain = 0
KWA1 121248Z 26005KT 12/10 A3006 RMK A01 T01180103  RH  090%=      5-min Rain = 0
KWA1 121249Z 25004KT 12/10 A3006 RMK A01 T01190103  RH  090%=      5-min Rain = 0
KWA1 121250Z 25005KT 12/10 A3006 RMK A01 T01190104  RH  090%=      5-min Rain = 0
KWA1 121251Z 26005KT 12/10 A3006 RMK A01 T01190104  RH  090%=      5-min Rain = 0
KWA1 121252Z 26005KT 12/10 A3006 RMK A01 T01200104  RH  090%=      5-min Rain = 0
KWA1 121253Z 26005KT 12/11 A3006 RMK A01 T01210105  RH  090%=      5-min Rain = 0
KWA1 121254Z 25005KT 12/11 A3006 RMK A01 T01210105  RH  090%=      5-min Rain = 0
KWA1 121255Z 25005KT 12/11 A3006 RMK A01 T01220105  RH  090%=      5-min Rain = 0
KWA1 121256Z 25005KT 12/11 A3006 RMK A01 T01220106  RH  090%=      5-min Rain = 0
KWA1 121257Z 25005KT 12/11 A3006 RMK A01 T01230106  RH  090%=      5-min Rain = 0
KWA1 121258Z 25005KT 12/11 A3006 RMK A01 T01230106  RH  089%=      5-min Rain = 0
KWA1 121259Z 25005KT 12/11 A3006 RMK A01 T01240107  RH  089%=      5-min Rain = 0
KWA1 121300Z 25005KT 13/11 A3006 RMK A01 T01250108  RH  089%=      5-min Rain = 0
KWA1 121301Z 25005KT 13/11 A3006 RMK A01 T01260108  RH  089%=      5-min Rain = 0
KWA1 121302Z 25005KT 13/11 A3006 RMK A01 T01270109  RH  089%=      5-min Rain = 0
KWA1 121303Z 26005KT 13/11 A3006 RMK A01 T01280110  RH  089%=      5-min Rain = 0
KWA1 121304Z 26005KT 13/11 A3006 RMK A01 T01290110  RH  088%=      5-min Rain = 0
KWA1 121305Z 26005KT 13/11 A3006 RMK A01 T01310111  RH  088%=      5-min Rain = 0
KWA1 121306Z 26005KT 13/11 A3006 RMK A01 T01320111  RH  087%=      5-min Rain = 0
KWA1 121307Z 26005KT 13/11 A3006 RMK A01 T01330111  RH  087%=      5-min Rain = 0
KWA1 121308Z 26005KT 13/11 A3006 RMK A01 T01340112  RH  087%=      5-min Rain = 0
KWA1 121309Z 26005KT 14/11 A3006 RMK A01 T01350113  RH  087%=      5-min Rain = 0
KWA1 121310Z 26005KT 14/11 A3006 RMK A01 T01350113  RH  087%=      5-min Rain = 0
KWA1 121311Z 26005KT 14/11 A3006 RMK A01 T01360114  RH  087%=      5-min Rain = 0
KWA1 121312Z 26005KT 14/11 A3006 RMK A01 T01360114  RH  087%=      5-min Rain = 0
KWA1 121313Z 26005KT 14/12 A3006 RMK A01 T01370115  RH  087%=      5-min Rain = 0
KWA1 121314Z 25004KT 14/12 A3006 RMK A01 T01370115  RH  086%=      5-min Rain = 0
KWA1 121315Z 25004KT 14/12 A3006 RMK A01 T01380115  RH  086%=      5-min Rain = 0
KWA1 121316Z 25004KT 14/12 A3006 RMK A01 T01380115  RH  086%=      5-min Rain = 0
KWA1 121317Z 25004KT 14/12 A3006 RMK A01 T01390116  RH  086%=      5-min Rain = 0
KWA1 121318Z 25004KT 14/12 A3006 RMK A01 T01400117  RH  086%=      5-min Rain = 0
KWA1 121319Z 25005KT 14/12 A3006 RMK A01 T01410118  RH  086%=      5-min Rain = 0
KWA1 121320Z 25004KT 14/12 A3006 RMK A01 T01410118  RH  086%=      5-min Rain = 0
KWA1 121321Z 25005KT 14/12 A3006 RMK A01 T01420118  RH  085%=      5-min Rain = 0
KWA1 121322Z 25005KT 14/12 A3006 RMK A01 T01430117  RH  084%=      5-min Rain = 0
KWA1 121323Z 25005KT 14/12 A3006 RMK A01 T01440117  RH  084%=      5-min Rain = 0
KWA1 121324Z 25005KT 15/12 A3006 RMK A01 T01450116  RH  083%=      5-min Rain = 0
KWA1 121325Z 25005KT 15/12 A3006 RMK A01 T01450117  RH  083%=      5-min Rain = 0
KWA1 121326Z 25005KT 15/12 A3006 RMK A01 T01460117  RH  083%=      5-min Rain = 0
KWA1 121327Z 25005KT 15/12 A3006 RMK A01 T01460118  RH  083%=      5-min Rain = 0
KWA1 121328Z 25005KT 15/12 A3006 RMK A01 T01470118  RH  083%=      5-min Rain = 0
KWA1 121329Z 25005KT 15/12 A3006 RMK A01 T01480119  RH  083%=      5-min Rain = 0
KWA1 121330Z 25004KT 15/12 A3006 RMK A01 T01490121  RH  083%=      5-min Rain = 0
KWA1 121331Z 25004KT 15/12 A3006 RMK A01 T01490120  RH  083%=      5-min Rain = 0
KWA1 121332Z 25004KT 15/12 A3006 RMK A01 T01500120  RH  082%=      5-min Rain = 0
KWA1 121333Z 25004KT 15/12 A3006 RMK A01 T01510120  RH  082%=      5-min Rain = 0
KWA1 121334Z 25004KT 15/12 A3006 RMK A01 T01520121  RH  082%=      5-min Rain = 0
KWA1 121335Z 25004KT 15/12 A3006 RMK A01 T01520122  RH  082%=      5-min Rain = 0
KWA1 121336Z 25003KT 15/12 A3006 RMK A01 T01530123  RH  082%=      5-min Rain = 0
KWA1 121337Z 25004KT 15/12 A3006 RMK A01 T01540123  RH  082%=      5-min Rain = 0
KWA1 121338Z 25004KT 15/12 A3006 RMK A01 T01540122  RH  081%=      5-min Rain = 0
KWA1 121339Z 25003KT 16/12 A3006 RMK A01 T01550123  RH  081%=      5-min Rain = 0
KWA1 121340Z 25003KT 16/13 A3006 RMK A01 T01560125  RH  082%=      5-min Rain = 0
KWA1 121341Z 25003KT 16/13 A3006 RMK A01 T01570126  RH  082%=      5-min Rain = 0
KWA1 121342Z 25003KT 16/13 A3006 RMK A01 T01570127  RH  082%=      5-min Rain = 0
KWA1 121343Z 25003KT 16/13 A3006 RMK A01 T01580125  RH  080%=      5-min Rain = 0
KWA1 121344Z 25004KT 16/12 A3006 RMK A01 T01590124  RH  079%=      5-min Rain = 0
KWA1 121345Z 25003KT 16/12 A3006 RMK A01 T01600123  RH  079%=      5-min Rain = 0
KWA1 121346Z 25004KT 16/12 A3006 RMK A01 T01600124  RH  079%=      5-min Rain = 0
KWA1 121347Z 25003KT 16/12 A3006 RMK A01 T01610123  RH  078%=      5-min Rain = 0
KWA1 121348Z 24002KT 16/13 A3006 RMK A01 T01610125  RH  079%=      5-min Rain = 0
KWA1 121349Z 26003KT 16/13 A3006 RMK A01 T01620126  RH  079%=      5-min Rain = 0
KWA1 121350Z 26003KT 16/13 A3006 RMK A01 T01620126  RH  079%=      5-min Rain = 0
KWA1 121351Z 26004KT 16/13 A3006 RMK A01 T01630126  RH  079%=      5-min Rain = 0
KWA1 121352Z 26005KT 17/13 A3006 RMK A01 T01650127  RH  078%=      5-min Rain = 0
KWA1 121353Z 26005KT 17/12 A3006 RMK A01 T01650124  RH  077%=      5-min Rain = 0
KWA1 121354Z 25005KT 17/13 A3006 RMK A01 T01650125  RH  077%=      5-min Rain = 0
KWA1 121355Z 25004KT 17/13 A3006 RMK A01 T01660125  RH  077%=      5-min Rain = 0
KWA1 121356Z 26004KT 17/13 A3006 RMK A01 T01660126  RH  077%=      5-min Rain = 0
KWA1 121357Z 26005KT 17/13 A3006 RMK A01 T01660125  RH  077%=      5-min Rain = 0
KWA1 121358Z 26005KT 17/12 A3006 RMK A01 T01660124  RH  076%=      5-min Rain = 0
KWA1 121359Z 26005KT 17/12 A3006 RMK A01 T01660124  RH  076%=      5-min Rain = 0
KWA1 121400Z 25005KT 17/12 A3006 RMK A01 T01670124  RH  076%=      5-min Rain = 0
KWA1 121401Z 25005KT 17/13 A3006 RMK A01 T01670125  RH  076%=      5-min Rain = 0
KWA1 121402Z 25005KT 17/13 A3006 RMK A01 T01670127  RH  077%=      5-min Rain = 0
KWA1 121403Z 25005KT 17/13 A3006 RMK A01 T01680126  RH  077%=      5-min Rain = 0
KWA1 121404Z 25005KT 17/13 A3006 RMK A01 T01680127  RH  077%=      5-min Rain = 0
KWA1 121405Z 26005KT 17/13 A3006 RMK A01 T01690127  RH  076%=      5-min Rain = 0
KWA1 121406Z 25005KT 17/13 A3006 RMK A01 T01690126  RH  076%=      5-min Rain = 0
KWA1 121407Z 25005KT 17/13 A3006 RMK A01 T01700128  RH  076%=      5-min Rain = 0
KWA1 121408Z 25006KT 17/13 A3006 RMK A01 T01710127  RH  075%=      5-min Rain = 0
KWA1 121409Z 25005KT 17/13 A3006 RMK A01 T01710127  RH  075%=      5-min Rain = 0
KWA1 121410Z 25005KT 17/13 A3006 RMK A01 T01720129  RH  076%=      5-min Rain = 0
KWA1 121411Z 25005KT 17/13 A3006 RMK A01 T01730128  RH  075%=      5-min Rain = 0
KWA1 121412Z 26005KT 17/13 A3006 RMK A01 T01730128  RH  075%=      5-min Rain = 0
KWA1 121413Z 25005KT 17/13 A3006 RMK A01 T01740127  RH  074%=      5-min Rain = 0
KWA1 121414Z 25005KT 17/13 A3006 RMK A01 T01740127  RH  074%=      5-min Rain = 0
KWA1 121415Z 25005KT 18/13 A3005 RMK A01 T01750128  RH  074%=      5-min Rain = 0
KWA1 121416Z 24004KT 18/13 A3005 RMK A01 T01750131  RH  075%=      5-min Rain = 0
KWA1 121417Z 25004KT 18/13 A3005 RMK A01 T01770132  RH  075%=      5-min Rain = 0
KWA1 121418Z 25004KT 18/13 A3005 RMK A01 T01780131  RH  074%=      5-min Rain = 0
KWA1 121419Z 26004KT 18/13 A3005 RMK A01 T01790131  RH  073%=      5-min Rain = 0
KWA1 121420Z 25003KT 18/13 A3005 RMK A01 T01800131  RH  073%=      5-min Rain = 0
KWA1 121421Z 25003KT 18/13 A3006 RMK A01 T01820133  RH  073%=      5-min Rain = 0
KWA1 121422Z 25004KT 18/13 A3006 RMK A01 T01830134  RH  073%=      5-min Rain = 0
KWA1 121423Z 26004KT 18/13 A3006 RMK A01 T01830130  RH  071%=      5-min Rain = 0
KWA1 121424Z 27005KT 18/13 A3006 RMK A01 T01840128  RH  070%=      5-min Rain = 0
KWA1 121425Z 27004KT 19/13 A3006 RMK A01 T01850129  RH  070%=      5-min Rain = 0
KWA1 121426Z 27005KT 19/13 A3006 RMK A01 T01860128  RH  069%=      5-min Rain = 0
KWA1 121427Z 27005KT 19/13 A3006 RMK A01 T01870126  RH  068%=      5-min Rain = 0
KWA1 121428Z 27005KT 19/12 A3006 RMK A01 T01870124  RH  067%=      5-min Rain = 0
KWA1 121429Z 27005KT 19/13 A3006 RMK A01 T01870125  RH  067%=      5-min Rain = 0
KWA1 121430Z 27005KT 19/13 A3006 RMK A01 T01880127  RH  068%=      5-min Rain = 0
KWA1 121431Z 27004KT 19/13 A3006 RMK A01 T01880126  RH  067%=      5-min Rain = 0
KWA1 121432Z 26004KT 19/12 A3005 RMK A01 T01890124  RH  066%=      5-min Rain = 0
KWA1 121433Z 26004KT 19/13 A3005 RMK A01 T01890129  RH  068%=      5-min Rain = 0
KWA1 121434Z 26004KT 19/13 A3005 RMK A01 T01900128  RH  067%=      5-min Rain = 0
KWA1 121435Z 26004KT 19/13 A3005 RMK A01 T01900129  RH  067%=      5-min Rain = 0
KWA1 121436Z 26004KT 19/13 A3005 RMK A01 T01910131  RH  068%=      5-min Rain = 0
KWA1 121437Z 27004KT 19/13 A3005 RMK A01 T01920130  RH  067%=      5-min Rain = 0
KWA1 121438Z 28004KT 19/13 A3005 RMK A01 T01930132  RH  068%=      5-min Rain = 0
KWA1 121439Z 28004KT 19/13 A3005 RMK A01 T01940129  RH  066%=      5-min Rain = 0
KWA1 121440Z 26004KT 19/13 A3005 RMK A01 T01940131  RH  067%=      5-min Rain = 0
KWA1 121441Z 27005KT 20/13 A3005 RMK A01 T01960128  RH  065%=      5-min Rain = 0
KWA1 121442Z 26004KT 20/13 A3005 RMK A01 T01970130  RH  065%=      5-min Rain = 0
KWA1 121443Z 27004KT 20/13 A3005 RMK A01 T01970131  RH  065%=      5-min Rain = 0
KWA1 121444Z 27005KT 20/13 A3006 RMK A01 T01980130  RH  065%=      5-min Rain = 0
KWA1 121445Z 28005KT 20/13 A3006 RMK A01 T01990126  RH  063%=      5-min Rain = 0
KWA1 121446Z 28005KT 20/13 A3006 RMK A01 T01990126  RH  063%=      5-min Rain = 0
KWA1 121447Z 28005KT 20/13 A3005 RMK A01 T01990126  RH  062%=      5-min Rain = 0
KWA1 121448Z 27005KT 20/13 A3005 RMK A01 T01990128  RH  064%=      5-min Rain = 0
KWA1 121449Z 27005KT 20/13 A3005 RMK A01 T02000129  RH  063%=      5-min Rain = 0
KWA1 121450Z 27004KT 20/13 A3005 RMK A01 T02010131  RH  064%=      5-min Rain = 0
KWA1 121451Z 26004KT 20/13 A3005 RMK A01 T02020133  RH  064%=      5-min Rain = 0
KWA1 121452Z 26004KT 20/14 A3005 RMK A01 T02020137  RH  066%=      5-min Rain = 0
KWA1 121453Z 26005KT 20/13 A3005 RMK A01 T02040132  RH  064%=      5-min Rain = 0
KWA1 121454Z 25004KT 20/13 A3005 RMK A01 T02040134  RH  064%=      5-min Rain = 0
KWA1 121455Z 26005KT 20/14 A3005 RMK A01 T02040135  RH  064%=      5-min Rain = 0
KWA1 121456Z 25004KT 21/14 A3005 RMK A01 T02050136  RH  065%=      5-min Rain = 0
KWA1 121457Z 26005KT 21/14 A3005 RMK A01 T02070138  RH  065%=      5-min Rain = 0
KWA1 121458Z 27005KT 21/14 A3005 RMK A01 T02080135  RH  063%=      5-min Rain = 0
KWA1 121459Z 27004KT 21/14 A3005 RMK A01 T02090137  RH  063%=      5-min Rain = 0
KWA1 121500Z 26005KT 21/13 A3005 RMK A01 T02100132  RH  061%=      5-min Rain = 0
KWA1 121501Z 26005KT 21/13 A3005 RMK A01 T02100134  RH  062%=      5-min Rain = 0
KWA1 121502Z 25006KT 21/13 A3005 RMK A01 T02110133  RH  061%=      5-min Rain = 0
KWA1 121503Z 26005KT 21/13 A3005 RMK A01 T02110131  RH  060%=      5-min Rain = 0
KWA1 121504Z 26006KT 21/13 A3005 RMK A01 T02120133  RH  061%=      5-min Rain = 0
KWA1 121505Z 26006KT 21/13 A3005 RMK A01 T02130132  RH  060%=      5-min Rain = 0
KWA1 121506Z 25006KT 21/13 A3005 RMK A01 T02140133  RH  060%=      5-min Rain = 0
KWA1 121507Z 26006KT 21/13 A3005 RMK A01 T02140132  RH  059%=      5-min Rain = 0
KWA1 121508Z 25008KT 21/13 A3005 RMK A01 T02140131  RH  059%=      5-min Rain = 0
KWA1 121509Z 26008KT 21/13 A3005 RMK A01 T02140130  RH  059%=      5-min Rain = 0
KWA1 121510Z 26008KT 21/13 A3005 RMK A01 T02140129  RH  058%=      5-min Rain = 0
KWA1 121511Z 26008KT 22/13 A3005 RMK A01 T02150129  RH  058%=      5-min Rain = 0
KWA1 121512Z 26008KT 22/13 A3005 RMK A01 T02160128  RH  057%=      5-min Rain = 0
KWA1 121513Z 26008KT 22/13 A3005 RMK A01 T02170130  RH  058%=      5-min Rain = 0
KWA1 121514Z 26007KT 22/13 A3005 RMK A01 T02180127  RH  056%=      5-min Rain = 0
KWA1 121515Z 25006KT 22/13 A3005 RMK A01 T02190128  RH  056%=      5-min Rain = 0
KWA1 121516Z 25007KT 22/13 A3005 RMK A01 T02200132  RH  057%=      5-min Rain = 0
KWA1 121517Z 26007KT 22/13 A3005 RMK A01 T02210132  RH  057%=      5-min Rain = 0
KWA1 121518Z 26007KT 22/13 A3005 RMK A01 T02200133  RH  058%=      5-min Rain = 0
KWA1 121519Z 26007KT 22/13 A3005 RMK A01 T02210130  RH  056%=      5-min Rain = 0
KWA1 121520Z 25007KT 22/13 A3005 RMK A01 T02210131  RH  056%=      5-min Rain = 0
KWA1 121521Z 26006KT 22/13 A3005 RMK A01 T02220134  RH  057%=      5-min Rain = 0
KWA1 121522Z 26005KT 22/13 A3005 RMK A01 T02230132  RH  056%=      5-min Rain = 0
KWA1 121523Z 25005KT 22/13 A3005 RMK A01 T02240134  RH  057%=      5-min Rain = 0
KWA1 121524Z 26006KT 23/13 A3005 RMK A01 T02250133  RH  056%=      5-min Rain = 0
KWA1 121525Z 26005KT 23/13 A3005 RMK A01 T02260133  RH  056%=      5-min Rain = 0
KWA1 121526Z 26006KT 23/14 A3005 RMK A01 T02270136  RH  056%=      5-min Rain = 0
KWA1 121527Z 25007KT 23/13 A3005 RMK A01 T02270133  RH  055%=      5-min Rain = 0
KWA1 121528Z 26006KT 23/13 A3005 RMK A01 T02270134  RH  056%=      5-min Rain = 0
KWA1 121529Z 26007KT 23/14 A3005 RMK A01 T02270135  RH  056%=      5-min Rain = 0
KWA1 121530Z 27006KT 23/14 A3005 RMK A01 T02270135  RH  056%=      5-min Rain = 0
KWA1 121531Z 26007KT 23/14 A3005 RMK A01 T02300137  RH  056%=      5-min Rain = 0
KWA1 121532Z 27008KT 23/13 A3005 RMK A01 T02330132  RH  053%=      5-min Rain = 0
KWA1 121533Z 27008KT 23/13 A3005 RMK A01 T02340128  RH  051%=      5-min Rain = 0
KWA1 121534Z 28008KT 23/13 A3005 RMK A01 T02340127  RH  051%=      5-min Rain = 0
KWA1 121535Z 28008KT 24/13 A3005 RMK A01 T02350128  RH  051%=      5-min Rain = 0
KWA1 121536Z 27007KT 24/13 A3005 RMK A01 T02350125  RH  050%=      5-min Rain = 0
KWA1 121537Z 27008KT 24/13 A3005 RMK A01 T02370126  RH  050%=      5-min Rain = 0
KWA1 121538Z 27008KT 24/13 A3005 RMK A01 T02370127  RH  050%=      5-min Rain = 0
KWA1 121539Z 27008KT 24/13 A3005 RMK A01 T02370127  RH  050%=      5-min Rain = 0
KWA1 121540Z 27007KT 24/13 A3005 RMK A01 T02370128  RH  050%=      5-min Rain = 0
KWA1 121541Z 28007KT 24/13 A3005 RMK A01 T02370129  RH  051%=      5-min Rain = 0
KWA1 121542Z 27006KT 24/13 A3005 RMK A01 T02370129  RH  050%=      5-min Rain = 0
KWA1 121543Z 27007KT 24/13 A3005 RMK A01 T02400130  RH  050%=      5-min Rain = 0
KWA1 121544Z 27007KT 24/13 A3005 RMK A01 T02420128  RH  049%=      5-min Rain = 0
KWA1 121545Z 28007KT 24/13 A3005 RMK A01 T02420129  RH  049%=      5-min Rain = 0
KWA1 121546Z 27006KT 24/13 A3005 RMK A01 T02430133  RH  050%=      5-min Rain = 0
KWA1 121547Z 28008KT 25/13 A3005 RMK A01 T02450129  RH  048%=      5-min Rain = 0
KWA1 121548Z 28006KT 25/13 A3005 RMK A01 T02460129  RH  048%=      5-min Rain = 0
KWA1 121549Z 28007KT 25/13 A3005 RMK A01 T02460129  RH  048%=      5-min Rain = 0
KWA1 121550Z 26006KT 25/13 A3005 RMK A01 T02460133  RH  049%=      5-min Rain = 0
KWA1 121551Z 26006KT 25/13 A3005 RMK A01 T02460134  RH  050%=      5-min Rain = 0
KWA1 121552Z 25006KT 25/14 A3005 RMK A01 T02470135  RH  050%=      5-min Rain = 0
KWA1 121553Z 26007KT 25/13 A3005 RMK A01 T02480134  RH  049%=      5-min Rain = 0
KWA1 121554Z 27008KT 25/13 A3005 RMK A01 T02470128  RH  047%=      5-min Rain = 0
KWA1 121555Z 25007KT 25/13 A3005 RMK A01 T02470131  RH  048%=      5-min Rain = 0
KWA1 121556Z 25006KT 25/13 A3005 RMK A01 T02480132  RH  049%=      5-min Rain = 0
KWA1 121557Z 27007KT 25/13 A3005 RMK A01 T02480133  RH  049%=      5-min Rain = 0
KWA1 121558Z 27006KT 25/13 A3005 RMK A01 T02480132  RH  049%=      5-min Rain = 0
KWA1 121559Z 26006KT 25/13 A3005 RMK A01 T02490134  RH  049%=      5-min Rain = 0
KWA1 121600Z 28006KT 25/13 A3005 RMK A01 T02500131  RH  047%=      5-min Rain = 0
KWA1 121601Z 27005KT 25/13 A3005 RMK A01 T02500130  RH  047%=      5-min Rain = 0
KWA1 121602Z 26007KT 25/14 A3005 RMK A01 T02520135  RH  048%=      5-min Rain = 0
KWA1 121603Z 27008KT 25/13 A3005 RMK A01 T02530131  RH  047%=      5-min Rain = 0
KWA1 121604Z 26007KT 25/13 A3005 RMK A01 T02530131  RH  047%=      5-min Rain = 0
KWA1 121605Z 26005KT 25/13 A3005 RMK A01 T02510133  RH  048%=      5-min Rain = 0
KWA1 121606Z 27006KT 25/14 A3005 RMK A01 T02520137  RH  049%=      5-min Rain = 0
KWA1 121607Z 27007KT 25/13 A3005 RMK A01 T02530129  RH  046%=      5-min Rain = 0
KWA1 121608Z 26006KT 25/13 A3005 RMK A01 T02540134  RH  047%=      5-min Rain = 0
KWA1 121609Z 26007KT 25/13 A3005 RMK A01 T02540133  RH  047%=      5-min Rain = 0
KWA1 121610Z 28008KT 26/13 A3005 RMK A01 T02550131  RH  046%=      5-min Rain = 0
KWA1 121611Z 28007KT 26/13 A3005 RMK A01 T02560128  RH  045%=      5-min Rain = 0
KWA1 121612Z 28007KT 26/13 A3005 RMK A01 T02570130  RH  045%=      5-min Rain = 0
KWA1 121613Z 28007KT 26/13 A3005 RMK A01 T02580127  RH  044%=      5-min Rain = 0
KWA1 121614Z 27006KT 26/12 A3005 RMK A01 T02590124  RH  043%=      5-min Rain = 0
KWA1 121615Z 27007KT 26/13 A3005 RMK A01 T02590128  RH  044%=      5-min Rain = 0
KWA1 121616Z 29006KT 26/12 A3005 RMK A01 T02600124  RH  043%=      5-min Rain = 0
KWA1 121617Z 28007KT 26/13 A3005 RMK A01 T02600129  RH  044%=      5-min Rain = 0
KWA1 121618Z 28007KT 26/12 A3005 RMK A01 T02610121  RH  042%=      5-min Rain = 0
KWA1 121619Z 29007KT 26/12 A3005 RMK A01 T02590122  RH  043%=      5-min Rain = 0
KWA1 121620Z 28006KT 26/13 A3005 RMK A01 T02580126  RH  044%=      5-min Rain = 0
KWA1 121621Z 27006KT 26/13 A3005 RMK A01 T02600128  RH  044%=      5-min Rain = 0
KWA1 121622Z 27006KT 26/13 A3005 RMK A01 T02610126  RH  043%=      5-min Rain = 0
KWA1 121623Z 26006KT 26/13 A3004 RMK A01 T02610129  RH  044%=      5-min Rain = 0
KWA1 121624Z 26005KT 26/13 A3004 RMK A01 T02610130  RH  044%=      5-min Rain = 0
KWA1 121625Z 29005KT 26/13 A3004 RMK A01 T02610134  RH  045%=      5-min Rain = 0
KWA1 121626Z 26008KT 26/13 A3004 RMK A01 T02630132  RH  044%=      5-min Rain = 0
KWA1 121627Z 25008KT 27/13 A3004 RMK A01 T02650127  RH  043%=      5-min Rain = 0
KWA1 121628Z 26007KT 26/13 A3004 RMK A01 T02640134  RH  045%=      5-min Rain = 0
KWA1 121629Z 27008KT 26/13 A3004 RMK A01 T02630130  RH  044%=      5-min Rain = 0
KWA1 121630Z 26007KT 26/13 A3004 RMK A01 T02630126  RH  043%=      5-min Rain = 0
KWA1 121631Z 26006KT 26/13 A3004 RMK A01 T02630131  RH  044%=      5-min Rain = 0
KWA1 121632Z 28007KT 27/13 A3004 RMK A01 T02650130  RH  043%=      5-min Rain = 0
KWA1 121633Z 27005KT 27/13 A3004 RMK A01 T02660125  RH  042%=      5-min Rain = 0
KWA1 121634Z 26008KT 27/13 A3004 RMK A01 T02670131  RH  043%=      5-min Rain = 0
KWA1 121635Z 28007KT 27/13 A3004 RMK A01 T02670127  RH  042%=      5-min Rain = 0
KWA1 121636Z 28007KT 27/13 A3004 RMK A01 T02670129  RH  042%=      5-min Rain = 0
KWA1 121637Z 26006KT 27/13 A3004 RMK A01 T02690127  RH  041%=      5-min Rain = 0
KWA1 121638Z 26006KT 27/14 A3004 RMK A01 T02690135  RH  044%=      5-min Rain = 0
KWA1 121639Z 26006KT 27/13 A3004 RMK A01 T02700128  RH  041%=      5-min Rain = 0
KWA1 121640Z 27006KT 27/12 A3004 RMK A01 T02690124  RH  041%=      5-min Rain = 0
KWA1 121641Z 27005KT 27/12 A3004 RMK A01 T02700123  RH  040%=      5-min Rain = 0
KWA1 121642Z 27006KT 27/13 A3004 RMK A01 T02710125  RH  040%=      5-min Rain = 0
KWA1 121643Z 29005KT 27/12 A3003 RMK A01 T02720119  RH  039%=      5-min Rain = 0
KWA1 121644Z 29003KT 27/12 A3003 RMK A01 T02720120  RH  039%=      5-min Rain = 0
KWA1 121645Z 25005KT 27/13 A3003 RMK A01 T02730128  RH  041%=      5-min Rain = 0
KWA1 121646Z 26005KT 27/13 A3003 RMK A01 T02730127  RH  040%=      5-min Rain = 0
KWA1 121647Z 24006KT 27/13 A3003 RMK A01 T02730129  RH  041%=      5-min Rain = 0
KWA1 121648Z 24005KT 27/12 A3003 RMK A01 T02720124  RH  040%=      5-min Rain = 0
KWA1 121649Z 24005KT 27/13 A3003 RMK A01 T02710130  RH  042%=      5-min Rain = 0
KWA1 121650Z 27005KT 27/13 A3003 RMK A01 T02700127  RH  041%=      5-min Rain = 0
KWA1 121651Z 25005KT 27/13 A3003 RMK A01 T02710126  RH  041%=      5-min Rain = 0
KWA1 121652Z 24006KT 27/13 A3003 RMK A01 T02720127  RH  041%=      5-min Rain = 0
KWA1 121653Z 24005KT 27/13 A3003 RMK A01 T02720130  RH  042%=      5-min Rain = 0
KWA1 121654Z 24005KT 27/13 A3003 RMK A01 T02730126  RH  040%=      5-min Rain = 0
KWA1 121655Z 23004KT 27/13 A3003 RMK A01 T02730131  RH  041%=      5-min Rain = 0
KWA1 121656Z 25005KT 28/14 A3003 RMK A01 T02750137  RH  043%=      5-min Rain = 0
KWA1 121657Z 27006KT 28/13 A3003 RMK A01 T02760134  RH  042%=      5-min Rain = 0
KWA1 121658Z 29003KT 28/13 A3003 RMK A01 T02780129  RH  040%=      5-min Rain = 0
KWA1 121659Z 30004KT 28/12 A3003 RMK A01 T02800123  RH  038%=      5-min Rain = 0
KWA1 121700Z 29003KT 28/12 A3003 RMK A01 T02810115  RH  036%=      5-min Rain = 0
KWA1 121701Z 30003KT 28/13 A3003 RMK A01 T02800126  RH  038%=      5-min Rain = 0
KWA1 121702Z 32006KT 28/12 A3003 RMK A01 T02820124  RH  038%=      5-min Rain = 0
KWA1 121703Z 34004KT 28/11 A3003 RMK A01 T02840114  RH  035%=      5-min Rain = 0
KWA1 121704Z 30005KT 28/12 A3003 RMK A01 T02830118  RH  036%=      5-min Rain = 0
KWA1 121705Z 29006KT 28/12 A3003 RMK A01 T02840124  RH  037%=      5-min Rain = 0
KWA1 121706Z 31006KT 29/12 A3003 RMK A01 T02860119  RH  036%=      5-min Rain = 0
KWA1 121707Z 31006KT 29/12 A3003 RMK A01 T02850121  RH  036%=      5-min Rain = 0
KWA1 121708Z 30004KT 28/12 A3003 RMK A01 T02830118  RH  036%=      5-min Rain = 0
KWA1 121709Z 29002KT 28/12 A3003 RMK A01 T02810115  RH  036%=      5-min Rain = 0
KWA1 121710Z 24001KT 28/12 A3003 RMK A01 T02800115  RH  036%=      5-min Rain = 0
KWA1 121711Z 29005KT 28/12 A3003 RMK A01 T02810118  RH  036%=      5-min Rain = 0
KWA1 121712Z 30005KT 28/12 A3003 RMK A01 T02820118  RH  036%=      5-min Rain = 0
KWA1 121713Z 29003KT 28/12 A3003 RMK A01 T02820118  RH  036%=      5-min Rain = 0
KWA1 121714Z 26005KT 28/12 A3003 RMK A01 T02820123  RH  037%=      5-min Rain = 0
KWA1 121715Z 23004KT 28/12 A3003 RMK A01 T02820121  RH  037%=      5-min Rain = 0
KWA1 121716Z 22002KT 28/12 A3003 RMK A01 T02820119  RH  037%=      5-min Rain = 0
KWA1 121717Z 24002KT 28/12 A3003 RMK A01 T02810121  RH  037%=      5-min Rain = 0
KWA1 121718Z 32003KT 28/13 A3003 RMK A01 T02820126  RH  038%=      5-min Rain = 0
KWA1 121719Z 36004KT 28/12 A3003 RMK A01 T02840123  RH  037%=      5-min Rain = 0
KWA1 121720Z 30004KT 29/12 A3003 RMK A01 T02860119  RH  036%=      5-min Rain = 0
KWA1 121721Z 27003KT 29/12 A3002 RMK A01 T02850115  RH  035%=      5-min Rain = 0
KWA1 121722Z 24003KT 28/12 A3002 RMK A01 T02840118  RH  036%=      5-min Rain = 0
KWA1 121723Z 30003KT 28/12 A3002 RMK A01 T02840123  RH  037%=      5-min Rain = 0
KWA1 121724Z 32003KT 28/12 A3002 RMK A01 T02840120  RH  036%=      5-min Rain = 0
KWA1 121725Z 32003KT 29/12 A3002 RMK A01 T02850119  RH  036%=      5-min Rain = 0
KWA1 121726Z 31004KT 29/12 A3002 RMK A01 T02860119  RH  036%=      5-min Rain = 0
KWA1 121727Z 31003KT 29/12 A3002 RMK A01 T02860120  RH  036%=      5-min Rain = 0
KWA1 121728Z 29004KT 29/12 A3002 RMK A01 T02860116  RH  035%=      5-min Rain = 0
KWA1 121729Z 30007KT 29/12 A3002 RMK A01 T02860118  RH  035%=      5-min Rain = 0
KWA1 121730Z 28005KT 29/12 A3002 RMK A01 T02860120  RH  036%=      5-min Rain = 0
KWA1 121731Z 28004KT 29/12 A3002 RMK A01 T02860118  RH  035%=      5-min Rain = 0
KWA1 121732Z 34007KT 29/12 A3002 RMK A01 T02870121  RH  036%=      5-min Rain = 0
KWA1 121733Z 34004KT 29/12 A3002 RMK A01 T02890115  RH  034%=      5-min Rain = 0
KWA1 121734Z 33003KT 29/12 A3002 RMK A01 T02890115  RH  034%=      5-min Rain = 0
KWA1 121735Z 01002KT 29/12 A3002 RMK A01 T02890118  RH  035%=      5-min Rain = 0
KWA1 121736Z 35003KT 29/12 A3002 RMK A01 T02890118  RH  035%=      5-min Rain = 0
KWA1 121737Z 35004KT 29/11 A3002 RMK A01 T02900114  RH  034%=      5-min Rain = 0
KWA1 121738Z 35002KT 29/11 A3002 RMK A01 T02900112  RH  033%=      5-min Rain = 0
KWA1 121739Z 01005KT 29/12 A3002 RMK A01 T02890117  RH  034%=      5-min Rain = 0
KWA1 121740Z 36004KT 29/11 A3002 RMK A01 T02900114  RH  034%=      5-min Rain = 0
KWA1 121741Z 34003KT 29/11 A3002 RMK A01 T02890114  RH  034%=      5-min Rain = 0
KWA1 121742Z 35003KT 29/11 A3002 RMK A01 T02890114  RH  034%=      5-min Rain = 0
KWA1 121743Z 01003KT 29/11 A3002 RMK A01 T02890114  RH  034%=      5-min Rain = 0
KWA1 121744Z 02002KT 29/11 A3002 RMK A01 T02890111  RH  033%=      5-min Rain = 0
KWA1 121745Z 34005KT 29/12 A3002 RMK A01 T02900117  RH  034%=      5-min Rain = 0
KWA1 121746Z 34008KT 29/12 A3002 RMK A01 T02900123  RH  036%=      5-min Rain = 0
KWA1 121747Z 31005KT 29/12 A3001 RMK A01 T02930120  RH  034%=      5-min Rain = 0
KWA1 121748Z 32003KT 29/12 A3001 RMK A01 T02940115  RH  033%=      5-min Rain = 0
KWA1 121749Z 34005KT 29/12 A3001 RMK A01 T02920118  RH  034%=      5-min Rain = 0
KWA1 121750Z 34006KT 29/12 A3001 RMK A01 T02910124  RH  036%=      5-min Rain = 0
KWA1 121751Z 31005KT 29/13 A3001 RMK A01 T02930125  RH  036%=      5-min Rain = 0
KWA1 121752Z 27003KT 29/12 A3001 RMK A01 T02940116  RH  033%=      5-min Rain = 0
KWA1 121753Z 27002KT 29/12 A3001 RMK A01 T02940120  RH  034%=      5-min Rain = 0
KWA1 121754Z 30005KT 29/12 A3001 RMK A01 T02940119  RH  034%=      5-min Rain = 0
KWA1 121755Z 29006KT 29/12 A3001 RMK A01 T02940122  RH  034%=      5-min Rain = 0
KWA1 121756Z 30005KT 30/12 A3001 RMK A01 T02960117  RH  033%=      5-min Rain = 0
KWA1 121757Z 32004KT 29/12 A3001 RMK A01 T02940119  RH  034%=      5-min Rain = 0
KWA1 121758Z 30003KT 29/12 A3001 RMK A01 T02940118  RH  034%=      5-min Rain = 0
KWA1 121759Z 27001KT 29/12 A3001 RMK A01 T02930115  RH  033%=      5-min Rain = 0
KWA1 121800Z 27005KT 29/12 A3001 RMK A01 T02940118  RH  034%=      5-min Rain = 0
KWA1 121801Z 27006KT 29/12 A3001 RMK A01 T02930123  RH  035%=      5-min Rain = 0
KWA1 121802Z 29005KT 29/12 A3001 RMK A01 T02930118  RH  034%=      5-min Rain = 0
KWA1 121803Z 29005KT 29/12 A3001 RMK A01 T02940117  RH  033%=      5-min Rain = 0
KWA1 121804Z 28005KT 30/12 A30 RMK A01 T02950120  RH  034%=      5-min Rain = 0
KWA1 121805Z 29006KT 30/12 A30 RMK A01 T02970123  RH  034%=      5-min Rain = 0
KWA1 121806Z 27006KT 30/12 A30 RMK A01 T03000118  RH  033%=      5-min Rain = 0
KWA1 121807Z 27003KT 30/12 A30 RMK A01 T02980116  RH  033%=      5-min Rain = 0
KWA1 121808Z 31004KT 30/12 A30 RMK A01 T02970119  RH  033%=      5-min Rain = 0
KWA1 121809Z 24003KT 30/12 A30 RMK A01 T02970118  RH  033%=      5-min Rain = 0
KWA1 121810Z 26003KT 30/12 A30 RMK A01 T02970123  RH  034%=      5-min Rain = 0
KWA1 121811Z 09000KT 30/12 A30 RMK A01 T02980119  RH  033%=      5-min Rain = 0
KWA1 121812Z 26001KT 30/13 A30 RMK A01 T03000126  RH  034%=      5-min Rain = 0
KWA1 121813Z 33005KT 30/12 A30 RMK A01 T03020121  RH  033%=      5-min Rain = 0
KWA1 121814Z 32006KT 30/12 A30 RMK A01 T03020121  RH  033%=      5-min Rain = 0
KWA1 121815Z 35002KT 30/12 A30 RMK A01 T03000116  RH  032%=      5-min Rain = 0
KWA1 121816Z 33004KT 30/12 A30 RMK A01 T02980123  RH  034%=      5-min Rain = 0
KWA1 121817Z 31004KT 30/12 A30 RMK A01 T02990118  RH  033%=      5-min Rain = 0
KWA1 121818Z 32004KT 30/12 A30 RMK A01 T02980116  RH  033%=      5-min Rain = 0
KWA1 121819Z 33004KT 30/12 A30 RMK A01 T02960115  RH  033%=      5-min Rain = 0
KWA1 121820Z 35001KT 30/12 A30 RMK A01 T02950116  RH  033%=      5-min Rain = 0
KWA1 121821Z 35003KT 30/12 A30 RMK A01 T02950118  RH  034%=      5-min Rain = 0
KWA1 121822Z 00002KT 30/12 A30 RMK A01 T02960116  RH  033%=      5-min Rain = 0
KWA1 121823Z 04001KT 30/11 A30 RMK A01 T02960112  RH  032%=      5-min Rain = 0
KWA1 121824Z 11001KT 30/11 A30 RMK A01 T02960113  RH  032%=      5-min Rain = 0
KWA1 121825Z 35002KT 30/12 A30 RMK A01 T02960116  RH  033%=      5-min Rain = 0
KWA1 121826Z 03001KT 30/12 A30 RMK A01 T02960123  RH  034%=      5-min Rain = 0
KWA1 121827Z 33002KT 30/12 A30 RMK A01 T02970118  RH  033%=      5-min Rain = 0
KWA1 121828Z 26002KT 30/12 A2999 RMK A01 T02980118  RH  033%=      5-min Rain = 0
KWA1 121829Z 24003KT 30/13 A2999 RMK A01 T02990127  RH  035%=      5-min Rain = 0
KWA1 121830Z 26004KT 30/12 A2999 RMK A01 T02990124  RH  034%=      5-min Rain = 0
KWA1 121831Z 31004KT 30/13 A2999 RMK A01 T03000128  RH  035%=      5-min Rain = 0
KWA1 121832Z 31006KT 30/12 A2999 RMK A01 T03030124  RH  033%=      5-min Rain = 0
KWA1 121833Z 32008KT 30/12 A2999 RMK A01 T03040122  RH  033%=      5-min Rain = 0
KWA1 121834Z 34008KT 30/13 A2999 RMK A01 T03030125  RH  034%=      5-min Rain = 0
KWA1 121835Z 35007KT 30/13 A2999 RMK A01 T03030125  RH  034%=      5-min Rain = 0
KWA1 121836Z 34005KT 30/13 A2999 RMK A01 T03030125  RH  034%=      5-min Rain = 0
KWA1 121837Z 32006KT 30/12 A2999 RMK A01 T03040123  RH  033%=      5-min Rain = 0
KWA1 121838Z 31005KT 30/12 A2999 RMK A01 T03040122  RH  033%=      5-min Rain = 0
KWA1 121839Z 29002KT 30/12 A2999 RMK A01 T03040120  RH  032%=      5-min Rain = 0
KWA1 121840Z 22001KT 30/12 A2999 RMK A01 T03040118  RH  032%=      5-min Rain = 0
KWA1 121841Z 35004KT 30/12 A2999 RMK A01 T03040120  RH  032%=      5-min Rain = 0
KWA1 121842Z 35008KT 30/13 A2999 RMK A01 T03040129  RH  034%=      5-min Rain = 0
KWA1 121843Z 34005KT 31/12 A2999 RMK A01 T03050121  RH  032%=      5-min Rain = 0
KWA1 121844Z 36003KT 30/12 A2999 RMK A01 T03040123  RH  033%=      5-min Rain = 0
KWA1 121845Z 02001KT 30/12 A2998 RMK A01 T03040119  RH  032%=      5-min Rain = 0
KWA1 121846Z 33001KT 30/12 A2998 RMK A01 T03040116  RH  031%=      5-min Rain = 0
KWA1 121847Z 32006KT 30/12 A2998 RMK A01 T03040121  RH  032%=      5-min Rain = 0
KWA1 121848Z 31004KT 30/12 A2998 RMK A01 T03030120  RH  032%=      5-min Rain = 0
KWA1 121849Z 30004KT 30/12 A2998 RMK A01 T03020120  RH  033%=      5-min Rain = 0
KWA1 121850Z 28005KT 30/12 A2998 RMK A01 T03020118  RH  032%=      5-min Rain = 0
KWA1 121851Z 30004KT 30/12 A2998 RMK A01 T03020119  RH  032%=      5-min Rain = 0
KWA1 121852Z 31001KT 30/12 A2998 RMK A01 T03020115  RH  031%=      5-min Rain = 0
KWA1 121853Z 27003KT 30/12 A2998 RMK A01 T03020118  RH  032%=      5-min Rain = 0
KWA1 121854Z 27005KT 30/12 A2998 RMK A01 T03040121  RH  032%=      5-min Rain = 0
KWA1 121855Z 28005KT 30/12 A2998 RMK A01 T03040118  RH  032%=      5-min Rain = 0
KWA1 121856Z 29007KT 30/12 A2998 RMK A01 T03030120  RH  032%=      5-min Rain = 0
KWA1 121857Z 32004KT 30/12 A2998 RMK A01 T03030118  RH  032%=      5-min Rain = 0
KWA1 121858Z 33003KT 30/12 A2998 RMK A01 T03030118  RH  032%=      5-min Rain = 0
KWA1 121859Z 29002KT 30/12 A2998 RMK A01 T03020117  RH  032%=      5-min Rain = 0
KWA1 121900Z 28003KT 30/12 A2998 RMK A01 T03020117  RH  032%=      5-min Rain = 0
KWA1 121901Z 27005KT 30/12 A2997 RMK A01 T03020122  RH  033%=      5-min Rain = 0
KWA1 121902Z 27005KT 30/12 A2997 RMK A01 T03040120  RH  032%=      5-min Rain = 0
KWA1 121903Z 31005KT 30/12 A2997 RMK A01 T03030120  RH  032%=      5-min Rain = 0
KWA1 121904Z 26004KT 30/12 A2997 RMK A01 T03030117  RH  032%=      5-min Rain = 0
KWA1 121905Z 26004KT 30/13 A2997 RMK A01 T03020127  RH  034%=      5-min Rain = 0
KWA1 121906Z 25005KT 30/12 A2997 RMK A01 T03030124  RH  033%=      5-min Rain = 0
KWA1 121907Z 28005KT 31/13 A2997 RMK A01 T03050131  RH  035%=      5-min Rain = 0
KWA1 121908Z 29004KT 31/12 A2997 RMK A01 T03070121  RH  032%=      5-min Rain = 0
KWA1 121909Z 32003KT 31/12 A2997 RMK A01 T03070123  RH  032%=      5-min Rain = 0
KWA1 121910Z 33004KT 31/12 A2997 RMK A01 T03080119  RH  031%=      5-min Rain = 0
KWA1 121911Z 33002KT 31/12 A2997 RMK A01 T03080119  RH  031%=      5-min Rain = 0
KWA1 121912Z 32003KT 31/12 A2997 RMK A01 T03070120  RH  032%=      5-min Rain = 0
KWA1 121913Z 31002KT 31/12 A2997 RMK A01 T03070118  RH  031%=      5-min Rain = 0
KWA1 121914Z 34005KT 31/12 A2997 RMK A01 T03070123  RH  032%=      5-min Rain = 0
KWA1 121915Z 34004KT 31/12 A2997 RMK A01 T03070123  RH  032%=      5-min Rain = 0
KWA1 121916Z 28003KT 31/12 A2997 RMK A01 T03070120  RH  032%=      5-min Rain = 0
KWA1 121917Z 29003KT 31/12 A2997 RMK A01 T03060118  RH  031%=      5-min Rain = 0
KWA1 121918Z 31003KT 31/12 A2997 RMK A01 T03050121  RH  032%=      5-min Rain = 0
KWA1 121919Z 28003KT 31/12 A2997 RMK A01 T03060120  RH  032%=      5-min Rain = 0
KWA1 121920Z 29002KT 31/12 A2997 RMK A01 T03060121  RH  032%=      5-min Rain = 0
KWA1 121921Z 31002KT 31/12 A2997 RMK A01 T03080121  RH  032%=      5-min Rain = 0
KWA1 121922Z 35001KT 31/12 A2996 RMK A01 T03100119  RH  031%=      5-min Rain = 0
KWA1 121923Z 29003KT 31/12 A2996 RMK A01 T03110124  RH  032%=      5-min Rain = 0
KWA1 121924Z 27004KT 31/12 A2996 RMK A01 T03120119  RH  031%=      5-min Rain = 0
KWA1 121925Z 28004KT 31/12 A2996 RMK A01 T03090120  RH  031%=      5-min Rain = 0
KWA1 121926Z 26003KT 31/12 A2996 RMK A01 T03080119  RH  031%=      5-min Rain = 0
KWA1 121927Z 27004KT 31/13 A2996 RMK A01 T03090125  RH  032%=      5-min Rain = 0
KWA1 121928Z 26004KT 31/12 A2996 RMK A01 T03110122  RH  031%=      5-min Rain = 0
KWA1 121929Z 25003KT 31/12 A2996 RMK A01 T03110119  RH  031%=      5-min Rain = 0
KWA1 121930Z 31003KT 31/12 A2996 RMK A01 T03110120  RH  031%=      5-min Rain = 0
KWA1 121931Z 23001KT 31/12 A2996 RMK A01 T03100120  RH  031%=      5-min Rain = 0
KWA1 121932Z 26004KT 31/13 A2996 RMK A01 T03110126  RH  032%=      5-min Rain = 0
KWA1 121933Z 27005KT 31/12 A2995 RMK A01 T03140124  RH  031%=      5-min Rain = 0
KWA1 121934Z 26004KT 32/13 A2995 RMK A01 T03160125  RH  031%=      5-min Rain = 0
KWA1 121935Z 29006KT 32/13 A2995 RMK A01 T03170129  RH  032%=      5-min Rain = 0
KWA1 121936Z 28004KT 32/12 A2995 RMK A01 T03180123  RH  030%=      5-min Rain = 0
KWA1 121937Z 30002KT 32/12 A2995 RMK A01 T03180124  RH  031%=      5-min Rain = 0
KWA1 121938Z 34003KT 32/12 A2995 RMK A01 T03170124  RH  031%=      5-min Rain = 0
KWA1 121939Z 35006KT 32/13 A2995 RMK A01 T03180130  RH  032%=      5-min Rain = 0
KWA1 121940Z 31004KT 32/13 A2995 RMK A01 T03200126  RH  031%=      5-min Rain = 0
KWA1 121941Z 34003KT 32/13 A2995 RMK A01 T03200126  RH  031%=      5-min Rain = 0
KWA1 121942Z 35004KT 32/13 A2995 RMK A01 T03200129  RH  031%=      5-min Rain = 0
KWA1 121943Z 04004KT 32/13 A2995 RMK A01 T03210127  RH  031%=      5-min Rain = 0
KWA1 121944Z 05004KT 32/12 A2995 RMK A01 T03210123  RH  030%=      5-min Rain = 0
KWA1 121945Z 10003KT 32/12 A2995 RMK A01 T03190120  RH  030%=      5-min Rain = 0
KWA1 121946Z 10003KT 32/12 A2995 RMK A01 T03150118  RH  030%=      5-min Rain = 0
KWA1 121947Z 12002KT 31/12 A2995 RMK A01 T03140120  RH  030%=      5-min Rain = 0
KWA1 121948Z 19001KT 32/12 A2995 RMK A01 T03150120  RH  030%=      5-min Rain = 0
KWA1 121949Z 24002KT 32/12 A2995 RMK A01 T03160122  RH  031%=      5-min Rain = 0
KWA1 121950Z 27004KT 32/12 A2995 RMK A01 T03170124  RH  031%=      5-min Rain = 0
KWA1 121951Z 29007KT 32/12 A2994 RMK A01 T03180122  RH  030%=      5-min Rain = 0
KWA1 121952Z 31008KT 32/13 A2994 RMK A01 T03200125  RH  030%=      5-min Rain = 0
KWA1 121953Z 33007KT 32/13 A2994 RMK A01 T03210128  RH  031%=      5-min Rain = 0
KWA1 121954Z 34007KT 32/12 A2994 RMK A01 T03210124  RH  030%=      5-min Rain = 0
KWA1 121955Z 33005KT 32/12 A2994 RMK A01 T03190124  RH  031%=      5-min Rain = 0
KWA1 121956Z 35004KT 32/13 A2994 RMK A01 T03180126  RH  031%=      5-min Rain = 0
KWA1 121957Z 35004KT 32/12 A2994 RMK A01 T03190124  RH  030%=      5-min Rain = 0
KWA1 121958Z 34002KT 32/13 A2994 RMK A01 T03200125  RH  031%=      5-min Rain = 0
KWA1 121959Z 35002KT 32/13 A2994 RMK A01 T03210125  RH  030%=      5-min Rain = 0
KWA1 122000Z 32003KT 32/12 A2994 RMK A01 T03210121  RH  029%=      5-min Rain = 0
KWA1 122001Z 32003KT 32/12 A2994 RMK A01 T03200122  RH  030%=      5-min Rain = 0
KWA1 122002Z 33001KT 32/12 A2994 RMK A01 T03200121  RH  029%=      5-min Rain = 0
KWA1 122003Z 31005KT 32/12 A2994 RMK A01 T03230124  RH  030%=      5-min Rain = 0
KWA1 122004Z 33006KT 33/13 A2994 RMK A01 T03250133  RH  031%=      5-min Rain = 0
KWA1 122005Z 33004KT 33/12 A2994 RMK A01 T03280123  RH  029%=      5-min Rain = 0
KWA1 122006Z 32004KT 33/13 A2993 RMK A01 T03260126  RH  030%=      5-min Rain = 0
KWA1 122007Z 31005KT 33/13 A2993 RMK A01 T03260125  RH  029%=      5-min Rain = 0
KWA1 122008Z 31006KT 33/13 A2993 RMK A01 T03260125  RH  030%=      5-min Rain = 0
KWA1 122009Z 31005KT 33/12 A2993 RMK A01 T03260121  RH  029%=      5-min Rain = 0
KWA1 122010Z 31004KT 33/12 A2993 RMK A01 T03250122  RH  029%=      5-min Rain = 0
KWA1 122011Z 33006KT 32/12 A2993 RMK A01 T03240123  RH  029%=      5-min Rain = 0
KWA1 122012Z 32005KT 32/12 A2993 RMK A01 T03240121  RH  029%=      5-min Rain = 0
KWA1 122013Z 33003KT 32/12 A2993 RMK A01 T03210118  RH  029%=      5-min Rain = 0
KWA1 122014Z 30003KT 32/12 A2993 RMK A01 T03200120  RH  029%=      5-min Rain = 0
KWA1 122015Z 33003KT 32/12 A2993 RMK A01 T03200120  RH  029%=      5-min Rain = 0
KWA1 122016Z 34003KT 32/12 A2993 RMK A01 T03190120  RH  030%=      5-min Rain = 0
KWA1 122017Z 36004KT 32/12 A2993 RMK A01 T03190122  RH  030%=      5-min Rain = 0
KWA1 122018Z 35005KT 32/13 A2993 RMK A01 T03200128  RH  031%=      5-min Rain = 0
KWA1 122019Z 02006KT 32/13 A2993 RMK A01 T03230127  RH  030%=      5-min Rain = 0
KWA1 122020Z 01004KT 32/12 A2993 RMK A01 T03240120  RH  029%=      5-min Rain = 0
KWA1 122021Z 03005KT 32/13 A2993 RMK A01 T03240125  RH  030%=      5-min Rain = 0
KWA1 122022Z 05004KT 32/13 A2993 RMK A01 T03240126  RH  030%=      5-min Rain = 0
KWA1 122023Z 06004KT 32/13 A2992 RMK A01 T03240130  RH  031%=      5-min Rain = 0
KWA1 122024Z 04003KT 32/12 A2992 RMK A01 T03240120  RH  029%=      5-min Rain = 0
KWA1 122025Z 02004KT 32/12 A2992 RMK A01 T03220122  RH  030%=      5-min Rain = 0
KWA1 122026Z 01005KT 32/12 A2992 RMK A01 T03230123  RH  030%=      5-min Rain = 0
KWA1 122027Z 02008KT 32/13 A2992 RMK A01 T03240125  RH  030%=      5-min Rain = 0
KWA1 122028Z 02010KT 33/13 A2992 RMK A01 T03250125  RH  030%=      5-min Rain = 0
KWA1 122029Z 01008KT 33/13 A2992 RMK A01 T03250125  RH  030%=      5-min Rain = 0
KWA1 122030Z 01008KT 33/13 A2992 RMK A01 T03250127  RH  030%=      5-min Rain = 0
KWA1 122031Z 36006KT 33/12 A2992 RMK A01 T03260121  RH  029%=      5-min Rain = 0
KWA1 122032Z 34004KT 32/12 A2992 RMK A01 T03230117  RH  028%=      5-min Rain = 0
KWA1 122033Z 17002KT 32/12 A2992 RMK A01 T03200116  RH  029%=      5-min Rain = 0
KWA1 122034Z 07004KT 32/13 A2992 RMK A01 T03190125  RH  031%=      5-min Rain = 0
KWA1 122035Z 08005KT 32/12 A2992 RMK A01 T03190118  RH  029%=      5-min Rain = 0
KWA1 122036Z 13005KT 32/12 A2992 RMK A01 T03180118  RH  029%=      5-min Rain = 0
KWA1 122037Z 08004KT 32/12 A2992 RMK A01 T03180122  RH  030%=      5-min Rain = 0
KWA1 122038Z 04008KT 32/13 A2992 RMK A01 T03210128  RH  031%=      5-min Rain = 0
KWA1 122039Z 04007KT 32/13 A2992 RMK A01 T03230127  RH  030%=      5-min Rain = 0
KWA1 122040Z 02007KT 32/13 A2992 RMK A01 T03230130  RH  031%=      5-min Rain = 0
KWA1 122041Z 01006KT 32/12 A2992 RMK A01 T03240123  RH  029%=      5-min Rain = 0
KWA1 122042Z 03004KT 32/12 A2992 RMK A01 T03240123  RH  029%=      5-min Rain = 0
KWA1 122043Z 01004KT 32/13 A2992 RMK A01 T03240125  RH  030%=      5-min Rain = 0
KWA1 122044Z 36004KT 32/13 A2992 RMK A01 T03240125  RH  030%=      5-min Rain = 0
KWA1 122045Z 34003KT 33/12 A2992 RMK A01 T03250120  RH  029%=      5-min Rain = 0
KWA1 122046Z 27002KT 32/12 A2992 RMK A01 T03230117  RH  028%=      5-min Rain = 0
KWA1 122047Z 29001KT 32/12 A2991 RMK A01 T03220119  RH  029%=      5-min Rain = 0
KWA1 122048Z 26001KT 32/12 A2991 RMK A01 T03230123  RH  030%=      5-min Rain = 0
KWA1 122049Z 25001KT 32/12 A2991 RMK A01 T03240118  RH  028%=      5-min Rain = 0
KWA1 122050Z 24002KT 33/12 A2991 RMK A01 T03250124  RH  029%=      5-min Rain = 0
KWA1 122051Z 29003KT 33/13 A2991 RMK A01 T03270125  RH  029%=      5-min Rain = 0
KWA1 122052Z 28002KT 33/12 A2991 RMK A01 T03280121  RH  028%=      5-min Rain = 0
KWA1 122053Z 23001KT 33/13 A2991 RMK A01 T03270127  RH  030%=      5-min Rain = 0
KWA1 122054Z 20002KT 33/13 A2991 RMK A01 T03280134  RH  031%=      5-min Rain = 0
KWA1 122055Z 18002KT 33/13 A2991 RMK A01 T03300125  RH  029%=      5-min Rain = 0
KWA1 122056Z 20003KT 33/13 A2991 RMK A01 T03300125  RH  029%=      5-min Rain = 0
KWA1 122057Z 20001KT 33/13 A2991 RMK A01 T03290125  RH  029%=      5-min Rain = 0
KWA1 122058Z 16000KT 33/12 A2991 RMK A01 T03280119  RH  028%=      5-min Rain = 0
KWA1 122059Z 22000KT 33/12 A2991 RMK A01 T03300123  RH  028%=      5-min Rain = 0
KWA1 122100Z 02002KT 33/12 A2991 RMK A01 T03310121  RH  028%=      5-min Rain = 0
KWA1 122101Z 04005KT 33/12 A2991 RMK A01 T03310124  RH  028%=      5-min Rain = 0
KWA1 122102Z 05004KT 33/12 A2991 RMK A01 T03300123  RH  028%=      5-min Rain = 0
KWA1 122103Z 04006KT 33/12 A2991 RMK A01 T03270124  RH  029%=      5-min Rain = 0
KWA1 122104Z 00006KT 33/13 A2991 RMK A01 T03260129  RH  030%=      5-min Rain = 0
KWA1 122105Z 35004KT 33/13 A2991 RMK A01 T03270125  RH  029%=      5-min Rain = 0
KWA1 122106Z 04003KT 33/13 A2991 RMK A01 T03280125  RH  029%=      5-min Rain = 0
KWA1 122107Z 06001KT 33/13 A299 RMK A01 T03280125  RH  029%=      5-min Rain = 0
KWA1 122108Z 06001KT 33/12 A299 RMK A01 T03280122  RH  029%=      5-min Rain = 0
KWA1 122109Z 31001KT 33/12 A299 RMK A01 T03290122  RH  028%=      5-min Rain = 0
KWA1 122110Z 31006KT 33/13 A299 RMK A01 T03290125  RH  029%=      5-min Rain = 0
KWA1 122111Z 31007KT 33/13 A299 RMK A01 T03290125  RH  029%=      5-min Rain = 0
KWA1 122112Z 29004KT 33/12 A299 RMK A01 T03280121  RH  028%=      5-min Rain = 0
KWA1 122113Z 33004KT 32/12 A299 RMK A01 T03240122  RH  029%=      5-min Rain = 0
KWA1 122114Z 35005KT 32/13 A299 RMK A01 T03240125  RH  030%=      5-min Rain = 0
KWA1 122115Z 36003KT 33/13 A299 RMK A01 T03250126  RH  030%=      5-min Rain = 0
KWA1 122116Z 00002KT 33/12 A299 RMK A01 T03260122  RH  029%=      5-min Rain = 0
KWA1 122117Z 35002KT 33/12 A299 RMK A01 T03270124  RH  029%=      5-min Rain = 0
KWA1 122118Z 01002KT 33/13 A299 RMK A01 T03280125  RH  029%=      5-min Rain = 0
KWA1 122119Z 33004KT 33/13 A299 RMK A01 T03290128  RH  030%=      5-min Rain = 0
KWA1 122120Z 30004KT 33/13 A299 RMK A01 T03290127  RH  029%=      5-min Rain = 0
KWA1 122121Z 32006KT 33/13 A299 RMK A01 T03300129  RH  030%=      5-min Rain = 0
KWA1 122122Z 34006KT 33/13 A299 RMK A01 T03300125  RH  029%=      5-min Rain = 0
KWA1 122123Z 31007KT 33/13 A299 RMK A01 T03280128  RH  030%=      5-min Rain = 0
KWA1 122124Z 29006KT 33/12 A299 RMK A01 T03290124  RH  029%=      5-min Rain = 0
KWA1 122125Z 30005KT 33/13 A299 RMK A01 T03290125  RH  029%=      5-min Rain = 0
KWA1 122126Z 30005KT 33/12 A299 RMK A01 T03290123  RH  028%=      5-min Rain = 0
KWA1 122127Z 32003KT 33/12 A299 RMK A01 T03290121  RH  028%=      5-min Rain = 0
KWA1 122128Z 28003KT 33/12 A299 RMK A01 T03270122  RH  029%=      5-min Rain = 0
KWA1 122129Z 26001KT 33/13 A299 RMK A01 T03280128  RH  030%=      5-min Rain = 0
KWA1 122130Z 30003KT 33/13 A299 RMK A01 T03290131  RH  030%=      5-min Rain = 0
KWA1 122131Z 30005KT 33/12 A299 RMK A01 T03300120  RH  028%=      5-min Rain = 0
KWA1 122132Z 31004KT 33/12 A299 RMK A01 T03280123  RH  029%=      5-min Rain = 0
KWA1 122133Z 31004KT 33/13 A2989 RMK A01 T03280125  RH  029%=      5-min Rain = 0
KWA1 122134Z 30003KT 33/12 A2989 RMK A01 T03280119  RH  028%=      5-min Rain = 0
KWA1 122135Z 32002KT 33/12 A2989 RMK A01 T03270120  RH  028%=      5-min Rain = 0
KWA1 122136Z 03002KT 33/13 A2989 RMK A01 T03260125  RH  029%=      5-min Rain = 0
KWA1 122137Z 02002KT 33/13 A2989 RMK A01 T03280126  RH  029%=      5-min Rain = 0
KWA1 122138Z 08005KT 33/13 A2989 RMK A01 T03290126  RH  029%=      5-min Rain = 0
KWA1 122139Z 04006KT 33/13 A2989 RMK A01 T03290129  RH  030%=      5-min Rain = 0
KWA1 122140Z 32009KT 33/13 A2989 RMK A01 T03300130  RH  030%=      5-min Rain = 0
KWA1 122141Z 33008KT 33/13 A2989 RMK A01 T03300125  RH  029%=      5-min Rain = 0
KWA1 122142Z 34006KT 33/13 A2989 RMK A01 T03300125  RH  029%=      5-min Rain = 0
KWA1 122143Z 32005KT 33/12 A2989 RMK A01 T03300123  RH  028%=      5-min Rain = 0
KWA1 122144Z 31004KT 33/12 A2989 RMK A01 T03290120  RH  028%=      5-min Rain = 0
KWA1 122145Z 33006KT 33/12 A2989 RMK A01 T03300120  RH  028%=      5-min Rain = 0
KWA1 122146Z 32004KT 33/12 A2989 RMK A01 T03290118  RH  028%=      5-min Rain = 0
KWA1 122147Z 04002KT 33/12 A2989 RMK A01 T03280118  RH  028%=      5-min Rain = 0
KWA1 122148Z 07004KT 33/13 A2989 RMK A01 T03270127  RH  030%=      5-min Rain = 0
KWA1 122149Z 07006KT 33/12 A2989 RMK A01 T03280124  RH  029%=      5-min Rain = 0
KWA1 122150Z 04008KT 33/13 A2989 RMK A01 T03280126  RH  029%=      5-min Rain = 0
KWA1 122151Z 03007KT 33/12 A2989 RMK A01 T03290122  RH  028%=      5-min Rain = 0
KWA1 122152Z 01008KT 33/13 A2989 RMK A01 T03280128  RH  030%=      5-min Rain = 0
KWA1 122153Z 02009KT 33/13 A2989 RMK A01 T03300128  RH  029%=      5-min Rain = 0
KWA1 122154Z 02008KT 33/13 A2989 RMK A01 T03320125  RH  028%=      5-min Rain = 0
KWA1 122155Z 00005KT 33/12 A2989 RMK A01 T03300118  RH  027%=      5-min Rain = 0
KWA1 122156Z 35002KT 33/12 A2989 RMK A01 T03270117  RH  028%=      5-min Rain = 0
KWA1 122157Z 03003KT 33/12 A2989 RMK A01 T03260121  RH  029%=      5-min Rain = 0
KWA1 122158Z 04006KT 33/13 A2989 RMK A01 T03270126  RH  029%=      5-min Rain = 0
KWA1 122159Z 04005KT 33/13 A2989 RMK A01 T03280126  RH  029%=      5-min Rain = 0
KWA1 122200Z 04004KT 33/12 A2989 RMK A01 T03290120  RH  028%=      5-min Rain = 0
KWA1 122201Z 02003KT 33/12 A2989 RMK A01 T03280120  RH  028%=      5-min Rain = 0
KWA1 122202Z 03006KT 33/12 A2989 RMK A01 T03270121  RH  029%=      5-min Rain = 0
KWA1 122203Z 02007KT 33/13 A2989 RMK A01 T03270126  RH  029%=      5-min Rain = 0
KWA1 122204Z 00007KT 33/13 A2989 RMK A01 T03300125  RH  029%=      5-min Rain = 0
KWA1 122205Z 36006KT 33/12 A2989 RMK A01 T03300120  RH  028%=      5-min Rain = 0
KWA1 122206Z 01004KT 33/12 A2989 RMK A01 T03300122  RH  028%=      5-min Rain = 0
KWA1 122207Z 35005KT 33/12 A2989 RMK A01 T03310121  RH  028%=      5-min Rain = 0
KWA1 122208Z 35004KT 33/12 A2989 RMK A01 T03310121  RH  028%=      5-min Rain = 0
KWA1 122209Z 35003KT 33/12 A2989 RMK A01 T03290118  RH  028%=      5-min Rain = 0
KWA1 122210Z 33002KT 33/12 A2989 RMK A01 T03280117  RH  027%=      5-min Rain = 0
KWA1 122211Z 01001KT 33/12 A2988 RMK A01 T03280119  RH  028%=      5-min Rain = 0
KWA1 122212Z 35002KT 33/12 A2988 RMK A01 T03290121  RH  028%=      5-min Rain = 0
KWA1 122213Z 01004KT 33/12 A2989 RMK A01 T03300124  RH  029%=      5-min Rain = 0
KWA1 122214Z 00005KT 33/13 A2989 RMK A01 T03310125  RH  029%=      5-min Rain = 0
KWA1 122215Z 01005KT 33/13 A2989 RMK A01 T03310126  RH  029%=      5-min Rain = 0
KWA1 122216Z 01006KT 33/12 A2989 RMK A01 T03310121  RH  028%=      5-min Rain = 0
KWA1 122217Z 36004KT 33/12 A2989 RMK A01 T03290120  RH  028%=      5-min Rain = 0
KWA1 122218Z 35006KT 33/12 A2989 RMK A01 T03290122  RH  028%=      5-min Rain = 0
KWA1 122219Z 02004KT 33/12 A2989 RMK A01 T03280122  RH  029%=      5-min Rain = 0
KWA1 122220Z 03004KT 33/12 A2989 RMK A01 T03280118  RH  028%=      5-min Rain = 0
KWA1 122221Z 03005KT 33/12 A2988 RMK A01 T03270123  RH  029%=      5-min Rain = 0
KWA1 122222Z 01004KT 33/12 A2988 RMK A01 T03270122  RH  029%=      5-min Rain = 0
KWA1 122223Z 36003KT 33/12 A2988 RMK A01 T03270121  RH  029%=      5-min Rain = 0
KWA1 122224Z 01003KT 33/13 A2988 RMK A01 T03270125  RH  029%=      5-min Rain = 0
KWA1 122225Z 01007G12KT 33/13 A2988 RMK A01 T03280125  RH  029%=      5-min Rain = 0
KWA1 122226Z 01007KT 33/12 A2988 RMK A01 T03280118  RH  028%=      5-min Rain = 0
KWA1 122227Z 02006KT 33/12 A2988 RMK A01 T03280124  RH  029%=      5-min Rain = 0
KWA1 122228Z 00007KT 33/12 A2988 RMK A01 T03280121  RH  028%=      5-min Rain = 0
KWA1 122229Z 00007KT 33/12 A2988 RMK A01 T03280122  RH  029%=      5-min Rain = 0
KWA1 122230Z 01006KT 33/12 A2988 RMK A01 T03280119  RH  028%=      5-min Rain = 0
KWA1 122231Z 36007KT 33/12 A2988 RMK A01 T03280122  RH  029%=      5-min Rain = 0
KWA1 122232Z 01007KT 33/12 A2988 RMK A01 T03280124  RH  029%=      5-min Rain = 0
KWA1 122233Z 00006KT 33/12 A2988 RMK A01 T03280123  RH  029%=      5-min Rain = 0
KWA1 122234Z 02007KT 33/13 A2988 RMK A01 T03280125  RH  029%=      5-min Rain = 0
KWA1 122235Z 03007KT 33/12 A2988 RMK A01 T03280122  RH  028%=      5-min Rain = 0
KWA1 122236Z 03007KT 33/12 A2988 RMK A01 T03280119  RH  028%=      5-min Rain = 0
KWA1 122237Z 04005KT 33/12 A2988 RMK A01 T03270123  RH  029%=      5-min Rain = 0
KWA1 122238Z 05005KT 33/12 A2988 RMK A01 T03270124  RH  029%=      5-min Rain = 0
KWA1 122239Z 36005KT 33/12 A2988 RMK A01 T03260123  RH  029%=      5-min Rain = 0
KWA1 122240Z 00005KT 33/12 A2988 RMK A01 T03260122  RH  029%=      5-min Rain = 0
KWA1 122241Z 01004KT 33/12 A2988 RMK A01 T03260122  RH  029%=      5-min Rain = 0
KWA1 122242Z 01005KT 33/13 A2988 RMK A01 T03260127  RH  030%=      5-min Rain = 0
KWA1 122243Z 01004KT 33/13 A2988 RMK A01 T03280127  RH  030%=      5-min Rain = 0
KWA1 122244Z 00008KT 33/13 A2988 RMK A01 T03280126  RH  029%=      5-min Rain = 0
KWA1 122245Z 01006KT 33/12 A2988 RMK A01 T03280120  RH  028%=      5-min Rain = 0
KWA1 122246Z 01006KT 33/12 A2988 RMK A01 T03270122  RH  029%=      5-min Rain = 0
KWA1 122247Z 34005KT 33/12 A2988 RMK A01 T03270124  RH  029%=      5-min Rain = 0
KWA1 122248Z 34006KT 33/12 A2988 RMK A01 T03270122  RH  029%=      5-min Rain = 0
KWA1 122249Z 34006KT 33/13 A2988 RMK A01 T03270127  RH  030%=      5-min Rain = 0
KWA1 122250Z 33005KT 33/13 A2988 RMK A01 T03270126  RH  029%=      5-min Rain = 0
KWA1 122251Z 34005KT 33/13 A2988 RMK A01 T03270127  RH  030%=      5-min Rain = 0
KWA1 122252Z 35005KT 33/13 A2988 RMK A01 T03260132  RH  031%=      5-min Rain = 0
KWA1 122253Z 35007KT 33/13 A2988 RMK A01 T03260133  RH  031%=      5-min Rain = 0
KWA1 122254Z 36005KT 33/13 A2988 RMK A01 T03260125  RH  030%=      5-min Rain = 0
KWA1 122255Z 36003KT 33/12 A2988 RMK A01 T03260122  RH  029%=      5-min Rain = 0
KWA1 122256Z 36003KT 33/13 A2988 RMK A01 T03260131  RH  031%=      5-min Rain = 0
KWA1 122257Z 34003KT 33/13 A2988 RMK A01 T03260133  RH  031%=      5-min Rain = 0
KWA1 122258Z 34005KT 33/13 A2988 RMK A01 T03260128  RH  030%=      5-min Rain = 0
KWA1 122259Z 34005KT 33/12 A2988 RMK A01 T03260124  RH  029%=      5-min Rain = 0
KWA1 122300Z 01003KT 33/12 A2988 RMK A01 T03260124  RH  029%=      5-min Rain = 0
KWA1 122301Z 01002KT 33/12 A2988 RMK A01 T03260119  RH  028%=      5-min Rain = 0
KWA1 122302Z 34002KT 33/12 A2988 RMK A01 T03260117  RH  028%=      5-min Rain = 0
KWA1 122303Z 34001KT 33/11 A2987 RMK A01 T03260113  RH  027%=      5-min Rain = 0
KWA1 122304Z 34001KT 33/12 A2987 RMK A01 T03260117  RH  028%=      5-min Rain = 0
KWA1 122305Z 35001KT 33/12 A2987 RMK A01 T03280117  RH  028%=      5-min Rain = 0
KWA1 122306Z 35000KT 33/12 A2987 RMK A01 T03300119  RH  028%=      5-min Rain = 0
KWA1 122307Z 31001KT 33/12 A2987 RMK A01 T03320121  RH  028%=      5-min Rain = 0
KWA1 122308Z 31002KT 33/13 A2987 RMK A01 T03320131  RH  030%=      5-min Rain = 0
KWA1 122309Z 34002KT 33/13 A2987 RMK A01 T03320128  RH  029%=      5-min Rain = 0
KWA1 122310Z 35002KT 33/12 A2987 RMK A01 T03310121  RH  028%=      5-min Rain = 0
KWA1 122311Z 01002KT 33/13 A2987 RMK A01 T03300126  RH  029%=      5-min Rain = 0
KWA1 122312Z 02003KT 33/13 A2987 RMK A01 T03290129  RH  030%=      5-min Rain = 0
KWA1 122313Z 04005KT 33/13 A2987 RMK A01 T03270126  RH  029%=      5-min Rain = 0
KWA1 122314Z 04004KT 33/12 A2987 RMK A01 T03260124  RH  029%=      5-min Rain = 0
KWA1 122315Z 04002KT 33/12 A2987 RMK A01 T03250122  RH  029%=      5-min Rain = 0
KWA1 122316Z 03002KT 32/12 A2987 RMK A01 T03240115  RH  028%=      5-min Rain = 0
KWA1 122317Z 05001KT 32/13 A2987 RMK A01 T03240125  RH  030%=      5-min Rain = 0
KWA1 122318Z 06002KT 33/13 A2987 RMK A01 T03250131  RH  031%=      5-min Rain = 0
KWA1 122319Z 06002KT 32/13 A2987 RMK A01 T03240132  RH  031%=      5-min Rain = 0
KWA1 122320Z 03003KT 32/13 A2987 RMK A01 T03240130  RH  031%=      5-min Rain = 0
KWA1 122321Z 03004KT 32/12 A2987 RMK A01 T03240122  RH  029%=      5-min Rain = 0
KWA1 122322Z 01003KT 32/13 A2987 RMK A01 T03230125  RH  030%=      5-min Rain = 0
KWA1 122323Z 02002KT 32/13 A2987 RMK A01 T03230125  RH  030%=      5-min Rain = 0
KWA1 122324Z 06002KT 32/13 A2987 RMK A01 T03230132  RH  031%=      5-min Rain = 0
KWA1 122325Z 03003KT 32/14 A2987 RMK A01 T03230135  RH  032%=      5-min Rain = 0
KWA1 122326Z 02003KT 32/13 A2987 RMK A01 T03230130  RH  031%=      5-min Rain = 0
KWA1 122327Z 03002KT 32/12 A2987 RMK A01 T03220122  RH  030%=      5-min Rain = 0
KWA1 122328Z 04001KT 32/13 A2987 RMK A01 T03220128  RH  031%=      5-min Rain = 0
KWA1 122329Z 02003KT 32/12 A2987 RMK A01 T03220124  RH  030%=      5-min Rain = 0
KWA1 122330Z 35002KT 32/13 A2987 RMK A01 T03220131  RH  031%=      5-min Rain = 0
KWA1 122331Z 35004KT 32/13 A2987 RMK A01 T03220130  RH  031%=      5-min Rain = 0
KWA1 122332Z 35003KT 32/13 A2987 RMK A01 T03220126  RH  030%=      5-min Rain = 0
KWA1 122333Z 35003KT 32/12 A2987 RMK A01 T03220124  RH  030%=      5-min Rain = 0
KWA1 122334Z 36003KT 32/13 A2987 RMK A01 T03220125  RH  030%=      5-min Rain = 0
KWA1 122335Z 36003KT 32/13 A2987 RMK A01 T03220131  RH  031%=      5-min Rain = 0
KWA1 122336Z 36003KT 32/13 A2987 RMK A01 T03220132  RH  031%=      5-min Rain = 0
KWA1 122337Z 34003KT 32/14 A2987 RMK A01 T03220137  RH  033%=      5-min Rain = 0
KWA1 122338Z 33002KT 32/14 A2987 RMK A01 T03210139  RH  033%=      5-min Rain = 0
KWA1 122339Z 36002KT 32/13 A2987 RMK A01 T03210132  RH  032%=      5-min Rain = 0
KWA1 122340Z 01003KT 32/13 A2987 RMK A01 T03210125  RH  030%=      5-min Rain = 0
KWA1 122341Z 00002KT 32/12 A2987 RMK A01 T03210123  RH  030%=      5-min Rain = 0
KWA1 122342Z 35002KT 32/13 A2987 RMK A01 T03210128  RH  031%=      5-min Rain = 0
KWA1 122343Z 35001KT 32/14 A2987 RMK A01 T03210135  RH  032%=      5-min Rain = 0
KWA1 122344Z 35002KT 32/14 A2987 RMK A01 T03210139  RH  033%=      5-min Rain = 0
KWA1 122345Z 36003KT 32/14 A2987 RMK A01 T03200143  RH  034%=      5-min Rain = 0
KWA1 122346Z 36003KT 32/14 A2987 RMK A01 T03200144  RH  034%=      5-min Rain = 0
KWA1 122347Z 34003KT 32/15 A2987 RMK A01 T03190146  RH  035%=      5-min Rain = 0
KWA1 122348Z 35003KT 32/14 A2987 RMK A01 T03180143  RH  035%=      5-min Rain = 0
KWA1 122349Z 35003KT 32/14 A2987 RMK A01 T03170140  RH  034%=      5-min Rain = 0
KWA1 122350Z 34002KT 32/14 A2987 RMK A01 T03170141  RH  034%=      5-min Rain = 0
KWA1 122351Z 35002KT 32/14 A2987 RMK A01 T03160143  RH  035%=      5-min Rain = 0
KWA1 122352Z 35002KT 32/14 A2987 RMK A01 T03160138  RH  034%=      5-min Rain = 0
KWA1 122353Z 33002KT 32/14 A2987 RMK A01 T03160144  RH  035%=      5-min Rain = 0
KWA1 122354Z 32002KT 32/15 A2987 RMK A01 T03150148  RH  036%=      5-min Rain = 0
KWA1 122355Z 33001KT 32/15 A2987 RMK A01 T03150150  RH  037%=      5-min Rain = 0
KWA1 122356Z 34001KT 32/15 A2987 RMK A01 T03150153  RH  038%=      5-min Rain = 0
KWA1 122357Z 34001KT 31/16 A2987 RMK A01 T03140155  RH  038%=      5-min Rain = 0
KWA1 122358Z 34002KT 31/16 A2987 RMK A01 T03130157  RH  039%=      5-min Rain = 0
KWA1 122359Z 34002KT 31/15 A2987 RMK A01 T03120154  RH  038%=      5-min Rain = 0
KWA1 130000Z 02001KT 31/15 A2987 RMK A01 T03120153  RH  038%=      5-min Rain = 0
KWA1 130001Z 03002KT 31/15 A2987 RMK A01 T03110147  RH  037%=      5-min Rain = 0
KWA1 130002Z 06002KT 31/15 A2987 RMK A01 T03100145  RH  037%=      5-min Rain = 0
KWA1 130003Z 09002KT 31/15 A2987 RMK A01 T03090152  RH  039%=      5-min Rain = 0
KWA1 130004Z 09002KT 31/15 A2987 RMK A01 T03090147  RH  037%=      5-min Rain = 0
KWA1 130005Z 08002KT 31/15 A2987 RMK A01 T03090146  RH  037%=      5-min Rain = 0
KWA1 130006Z 08002KT 31/15 A2987 RMK A01 T03090145  RH  037%=      5-min Rain = 0
KWA1 130007Z 08002KT 31/14 A2987 RMK A01 T03090139  RH  035%=      5-min Rain = 0
KWA1 130008Z 08002KT 31/14 A2987 RMK A01 T03090140  RH  036%=      5-min Rain = 0
KWA1 130009Z 09001KT 31/14 A2987 RMK A01 T03090143  RH  036%=      5-min Rain = 0
KWA1 130010Z 10002KT 31/15 A2987 RMK A01 T03090145  RH  037%=      5-min Rain = 0
KWA1 130011Z 10001KT 31/15 A2987 RMK A01 T03090146  RH  037%=      5-min Rain = 0
KWA1 130012Z 10001KT 31/15 A2987 RMK A01 T03100146  RH  037%=      5-min Rain = 0
KWA1 130013Z 10000KT 31/15 A2987 RMK A01 T03110150  RH  038%=      5-min Rain = 0
KWA1 130014Z 10000KT 31/15 A2987 RMK A01 T03110145  RH  036%=      5-min Rain = 0
KWA1 130015Z 00000KT 31/14 A2987 RMK A01 T03110142  RH  036%=      5-min Rain = 0
KWA1 130016Z 00000KT 31/15 A2987 RMK A01 T03110150  RH  038%=      5-min Rain = 0
KWA1 130017Z 00000KT 31/15 A2987 RMK A01 T03110154  RH  039%=      5-min Rain = 0
KWA1 130018Z 00000KT 31/15 A2987 RMK A01 T03120149  RH  037%=      5-min Rain = 0
KWA1 130019Z 00000KT 31/14 A2987 RMK A01 T03130144  RH  036%=      5-min Rain = 0
KWA1 130020Z 00000KT 31/14 A2987 RMK A01 T03130141  RH  035%=      5-min Rain = 0
KWA1 130021Z 00000KT 31/14 A2987 RMK A01 T03130140  RH  035%=      5-min Rain = 0
KWA1 130022Z 00000KT 31/14 A2987 RMK A01 T03130137  RH  034%=      5-min Rain = 0
KWA1 130023Z 00000KT 31/13 A2987 RMK A01 T03120131  RH  033%=      5-min Rain = 0
KWA1 130024Z 00000KT 31/15 A2987 RMK A01 T03120149  RH  037%=      5-min Rain = 0
KWA1 130025Z 00000KT 31/15 A2987 RMK A01 T03100150  RH  038%=      5-min Rain = 0
KWA1 130026Z 00000KT 31/16 A2987 RMK A01 T03090157  RH  040%=      5-min Rain = 0
KWA1 130027Z 00000KT 31/14 A2987 RMK A01 T03080143  RH  037%=      5-min Rain = 0
KWA1 130028Z 00000KT 31/13 A2987 RMK A01 T03060134  RH  035%=      5-min Rain = 0
KWA1 130029Z 00000KT 31/15 A2987 RMK A01 T03060146  RH  038%=      5-min Rain = 0
KWA1 130030Z 10000KT 31/16 A2986 RMK A01 T03050157  RH  041%=      5-min Rain = 0
KWA1 130031Z 10001KT 30/15 A2986 RMK A01 T03030153  RH  040%=      5-min Rain = 0
KWA1 130032Z 10001KT 30/15 A2986 RMK A01 T03020153  RH  041%=      5-min Rain = 0
KWA1 130033Z 10001KT 30/16 A2986 RMK A01 T02990156  RH  042%=      5-min Rain = 0
KWA1 130034Z 11001KT 30/15 A2986 RMK A01 T02970146  RH  040%=      5-min Rain = 0
KWA1 130035Z 13001KT 30/14 A2986 RMK A01 T02950135  RH  037%=      5-min Rain = 0
KWA1 130036Z 13001KT 30/13 A2986 RMK A01 T02960131  RH  037%=      5-min Rain = 0
KWA1 130037Z 13001KT 30/13 A2986 RMK A01 T02970130  RH  036%=      5-min Rain = 0
KWA1 130038Z 13001KT 30/13 A2986 RMK A01 T02980133  RH  036%=      5-min Rain = 0
KWA1 130039Z 14001KT 30/13 A2986 RMK A01 T02970129  RH  036%=      5-min Rain = 0
KWA1 130040Z 14001KT 30/13 A2986 RMK A01 T02980131  RH  036%=      5-min Rain = 0
KWA1 130041Z 14002KT 30/13 A2986 RMK A01 T02970134  RH  037%=      5-min Rain = 0
KWA1 130042Z 14002KT 30/13 A2986 RMK A01 T02960132  RH  036%=      5-min Rain = 0
KWA1 130043Z 14002KT 30/14 A2986 RMK A01 T02950140  RH  039%=      5-min Rain = 0
KWA1 130044Z 13002KT 29/14 A2986 RMK A01 T02930137  RH  038%=      5-min Rain = 0
KWA1 130045Z 13002KT 29/14 A2986 RMK A01 T02910139  RH  040%=      5-min Rain = 0
KWA1 130046Z 13002KT 29/14 A2986 RMK A01 T02890140  RH  040%=      5-min Rain = 0
KWA1 130047Z 13002KT 29/14 A2986 RMK A01 T02870139  RH  040%=      5-min Rain = 0
KWA1 130048Z 13002KT 29/14 A2986 RMK A01 T02860136  RH  040%=      5-min Rain = 0
KWA1 130049Z 13002KT 29/14 A2986 RMK A01 T02860137  RH  040%=      5-min Rain = 0
KWA1 130050Z 15002KT 29/14 A2986 RMK A01 T02850138  RH  040%=      5-min Rain = 0
KWA1 130051Z 14002KT 28/14 A2986 RMK A01 T02840138  RH  041%=      5-min Rain = 0
KWA1 130052Z 14002KT 28/14 A2986 RMK A01 T02830138  RH  041%=      5-min Rain = 0
KWA1 130053Z 14002KT 28/14 A2986 RMK A01 T02820138  RH  041%=      5-min Rain = 0
KWA1 130054Z 14002KT 28/14 A2986 RMK A01 T02830139  RH  041%=      5-min Rain = 0
KWA1 130055Z 14002KT 28/14 A2986 RMK A01 T02820136  RH  041%=      5-min Rain = 0
KWA1 130056Z 14002KT 28/13 A2986 RMK A01 T02820132  RH  040%=      5-min Rain = 0
KWA1 130057Z 14002KT 28/13 A2986 RMK A01 T02830132  RH  039%=      5-min Rain = 0
KWA1 130058Z 14002KT 28/13 A2986 RMK A01 T02840133  RH  039%=      5-min Rain = 0
KWA1 130059Z 14002KT 28/13 A2986 RMK A01 T02840132  RH  039%=      5-min Rain = 0
KWA1 130100Z 14002KT 28/13 A2986 RMK A01 T02840132  RH  039%=      5-min Rain = 0
KWA1 130101Z 14002KT 28/13 A2986 RMK A01 T02830131  RH  039%=      5-min Rain = 0
KWA1 130102Z 14002KT 28/13 A2986 RMK A01 T02820130  RH  039%=      5-min Rain = 0
KWA1 130103Z 14002KT 28/13 A2986 RMK A01 T02820133  RH  040%=      5-min Rain = 0
KWA1 130104Z 14002KT 28/14 A2986 RMK A01 T02810137  RH  041%=      5-min Rain = 0
KWA1 130105Z 14002KT 28/14 A2986 RMK A01 T02790137  RH  042%=      5-min Rain = 0
KWA1 130106Z 14002KT 28/14 A2986 RMK A01 T02770136  RH  042%=      5-min Rain = 0
KWA1 130107Z 14002KT 28/14 A2986 RMK A01 T02760139  RH  043%=      5-min Rain = 0
KWA1 130108Z 14002KT 27/13 A2986 RMK A01 T02740134  RH  042%=      5-min Rain = 0
KWA1 130109Z 14002KT 27/13 A2986 RMK A01 T02740130  RH  041%=      5-min Rain = 0
KWA1 130110Z 14002KT 28/13 A2986 RMK A01 T02750128  RH  040%=      5-min Rain = 0
KWA1 130111Z 14002KT 28/14 A2986 RMK A01 T02760137  RH  042%=      5-min Rain = 0
KWA1 130112Z 14002KT 28/14 A2986 RMK A01 T02750142  RH  044%=      5-min Rain = 0
KWA1 130113Z 13002KT 27/14 A2986 RMK A01 T02720138  RH  044%=      5-min Rain = 0
KWA1 130114Z 13002KT 27/13 A2986 RMK A01 T02710128  RH  041%=      5-min Rain = 0
KWA1 130115Z 12002KT 27/13 A2986 RMK A01 T02710130  RH  042%=      5-min Rain = 0
KWA1 130116Z 12002KT 27/13 A2986 RMK A01 T02680132  RH  043%=      5-min Rain = 0
KWA1 130117Z 12002KT 27/13 A2986 RMK A01 T02660132  RH  043%=      5-min Rain = 0
KWA1 130118Z 12003KT 26/13 A2986 RMK A01 T02640132  RH  044%=      5-min Rain = 0
KWA1 130119Z 12003KT 26/13 A2986 RMK A01 T02620132  RH  044%=      5-min Rain = 0
KWA1 130120Z 11003KT 26/13 A2986 RMK A01 T02610132  RH  045%=      5-min Rain = 0
KWA1 130121Z 11003KT 26/13 A2986 RMK A01 T02610134  RH  045%=      5-min Rain = 0
KWA1 130122Z 11004KT 26/14 A2986 RMK A01 T02600138  RH  047%=      5-min Rain = 0
KWA1 130123Z 11004KT 26/14 A2986 RMK A01 T02570139  RH  048%=      5-min Rain = 0
KWA1 130124Z 10004KT 25/14 A2986 RMK A01 T02540138  RH  049%=      5-min Rain = 0
KWA1 130125Z 10005KT 25/14 A2986 RMK A01 T02530140  RH  050%=      5-min Rain = 0
KWA1 130126Z 10005KT 25/14 A2986 RMK A01 T02510140  RH  050%=      5-min Rain = 0
KWA1 130127Z 10006KT 25/14 A2986 RMK A01 T02490140  RH  051%=      5-min Rain = 0
KWA1 130128Z 09006KT 25/14 A2986 RMK A01 T02460140  RH  052%=      5-min Rain = 0
KWA1 130129Z 09006KT 25/14 A2986 RMK A01 T02450141  RH  052%=      5-min Rain = 0
KWA1 130130Z 09005KT 25/14 A2986 RMK A01 T02450141  RH  052%=      5-min Rain = 0
KWA1 130131Z 09005KT 25/14 A2986 RMK A01 T02450141  RH  053%=      5-min Rain = 0
KWA1 130132Z 09005KT 25/14 A2986 RMK A01 T02450142  RH  053%=      5-min Rain = 0
KWA1 130133Z 09005KT 25/14 A2986 RMK A01 T02450141  RH  052%=      5-min Rain = 0
KWA1 130134Z 09005KT 25/14 A2986 RMK A01 T02450141  RH  052%=      5-min Rain = 0
KWA1 130135Z 08005KT 24/14 A2986 RMK A01 T02440142  RH  053%=      5-min Rain = 0
KWA1 130136Z 08005KT 24/14 A2986 RMK A01 T02420142  RH  053%=      5-min Rain = 0
KWA1 130137Z 08005KT 24/14 A2986 RMK A01 T02410142  RH  054%=      5-min Rain = 0
KWA1 130138Z 07006KT 24/14 A2986 RMK A01 T02400143  RH  055%=      5-min Rain = 0
KWA1 130139Z 07007KT 24/14 A2986 RMK A01 T02390144  RH  055%=      5-min Rain = 0
KWA1 130140Z 07007KT 24/14 A2986 RMK A01 T02380144  RH  056%=      5-min Rain = 0
KWA1 130141Z 08006KT 24/15 A2986 RMK A01 T02370145  RH  056%=      5-min Rain = 0
KWA1 130142Z 09005KT 24/14 A2986 RMK A01 T02350143  RH  056%=      5-min Rain = 0
KWA1 130143Z 08006KT 23/14 A2986 RMK A01 T02340143  RH  056%=      5-min Rain = 0
KWA1 130144Z 08006KT 24/14 A2986 RMK A01 T02350142  RH  056%=      5-min Rain = 0
KWA1 130145Z 08007KT 23/14 A2986 RMK A01 T02340142  RH  056%=      5-min Rain = 0
KWA1 130146Z 09007KT 23/14 A2987 RMK A01 T02330141  RH  056%=      5-min Rain = 0
KWA1 130147Z 08007KT 23/14 A2987 RMK A01 T02330140  RH  056%=      5-min Rain = 0
KWA1 130148Z 08007KT 23/14 A2987 RMK A01 T02330140  RH  056%=      5-min Rain = 0
KWA1 130149Z 09007KT 23/14 A2987 RMK A01 T02320139  RH  056%=      5-min Rain = 0
KWA1 130150Z 08008KT 23/14 A2987 RMK A01 T02320139  RH  056%=      5-min Rain = 0
KWA1 130151Z 08007KT 23/14 A2987 RMK A01 T02320138  RH  055%=      5-min Rain = 0
KWA1 130152Z 09007KT 23/14 A2987 RMK A01 T02320138  RH  055%=      5-min Rain = 0
KWA1 130153Z 09007KT 23/14 A2987 RMK A01 T02320137  RH  055%=      5-min Rain = 0
KWA1 130154Z 09008KT 23/14 A2987 RMK A01 T02320136  RH  055%=      5-min Rain = 0
KWA1 130155Z 10007KT 23/14 A2987 RMK A01 T02330135  RH  054%=      5-min Rain = 0
KWA1 130156Z 10008KT 23/13 A2987 RMK A01 T02340133  RH  053%=      5-min Rain = 0
KWA1 130157Z 10007KT 24/13 A2987 RMK A01 T02370132  RH  052%=      5-min Rain = 0
KWA1 130158Z 10007KT 24/13 A2987 RMK A01 T02390132  RH  051%=      5-min Rain = 0
KWA1 130159Z 10007KT 24/13 A2987 RMK A01 T02400132  RH  051%=      5-min Rain = 0
KWA1 130200Z 11007KT 24/13 A2987 RMK A01 T02400131  RH  051%=      5-min Rain = 0
KWA1 130201Z 11007KT 24/13 A2987 RMK A01 T02410130  RH  050%=      5-min Rain = 0
KWA1 130202Z 11007KT 25/13 A2987 RMK A01 T02460129  RH  048%=      5-min Rain = 0
KWA1 130203Z 12006KT 25/13 A2987 RMK A01 T02490129  RH  047%=      5-min Rain = 0
KWA1 130204Z 12007KT 25/13 A2987 RMK A01 T02510128  RH  046%=      5-min Rain = 0
KWA1 130205Z 12007KT 25/13 A2987 RMK A01 T02510129  RH  046%=      5-min Rain = 0
KWA1 130206Z 12007KT 25/13 A2987 RMK A01 T02510129  RH  047%=      5-min Rain = 0
KWA1 130207Z 12007KT 25/13 A2987 RMK A01 T02500129  RH  047%=      5-min Rain = 0
KWA1 130208Z 12007KT 25/13 A2987 RMK A01 T02490128  RH  047%=      5-min Rain = 0
KWA1 130209Z 12007KT 25/13 A2987 RMK A01 T02480128  RH  047%=      5-min Rain = 0
KWA1 130210Z 12007KT 25/13 A2987 RMK A01 T02480128  RH  047%=      5-min Rain = 0
KWA1 130211Z 12007KT 25/13 A2987 RMK A01 T02470128  RH  048%=      5-min Rain = 0
KWA1 130212Z 12006KT 25/13 A2987 RMK A01 T02460128  RH  048%=      5-min Rain = 0
KWA1 130213Z 12006KT 25/13 A2987 RMK A01 T02460129  RH  048%=      5-min Rain = 0
KWA1 130214Z 12006KT 24/13 A2987 RMK A01 T02440129  RH  049%=      5-min Rain = 0
KWA1 130215Z 11006KT 24/13 A2987 RMK A01 T02430129  RH  049%=      5-min Rain = 0
KWA1 130216Z 12006KT 24/13 A2988 RMK A01 T02410129  RH  050%=      5-min Rain = 0
KWA1 130217Z 12007KT 24/13 A2988 RMK A01 T02400130  RH  050%=      5-min Rain = 0
KWA1 130218Z 11007KT 24/13 A2988 RMK A01 T02390131  RH  051%=      5-min Rain = 0
KWA1 130219Z 12007KT 24/13 A2988 RMK A01 T02370131  RH  051%=      5-min Rain = 0
KWA1 130220Z 11007KT 24/13 A2988 RMK A01 T02370131  RH  051%=      5-min Rain = 0
KWA1 130221Z 12007KT 24/13 A2988 RMK A01 T02360131  RH  052%=      5-min Rain = 0
KWA1 130222Z 12007KT 24/13 A2988 RMK A01 T02360131  RH  052%=      5-min Rain = 0
KWA1 130223Z 12007KT 24/13 A2988 RMK A01 T02350131  RH  052%=      5-min Rain = 0
KWA1 130224Z 12007KT 24/13 A2988 RMK A01 T02350131  RH  052%=      5-min Rain = 0
KWA1 130225Z 12006KT 23/13 A2988 RMK A01 T02340131  RH  052%=      5-min Rain = 0
KWA1 130226Z 12006KT 23/13 A2988 RMK A01 T02330131  RH  053%=      5-min Rain = 0
KWA1 130227Z 12006KT 23/13 A2988 RMK A01 T02320130  RH  053%=      5-min Rain = 0
KWA1 130228Z 12006KT 23/13 A2988 RMK A01 T02310130  RH  053%=      5-min Rain = 0
KWA1 130229Z 12006KT 23/13 A2988 RMK A01 T02310130  RH  053%=      5-min Rain = 0
KWA1 130230Z 12006KT 23/13 A2988 RMK A01 T02300130  RH  053%=      5-min Rain = 0
KWA1 130231Z 12006KT 23/13 A2988 RMK A01 T02300130  RH  053%=      5-min Rain = 0
KWA1 130232Z 12006KT 23/13 A2988 RMK A01 T02300129  RH  053%=      5-min Rain = 0
KWA1 130233Z 12006KT 23/13 A2988 RMK A01 T02300128  RH  053%=      5-min Rain = 0
KWA1 130234Z 12006KT 23/13 A2988 RMK A01 T02290128  RH  053%=      5-min Rain = 0
KWA1 130235Z 12006KT 23/13 A2988 RMK A01 T02300128  RH  053%=      5-min Rain = 0
KWA1 130236Z 12006KT 23/13 A2988 RMK A01 T02290129  RH  053%=      5-min Rain = 0
KWA1 130237Z 13006KT 23/13 A2988 RMK A01 T02280128  RH  053%=      5-min Rain = 0
KWA1 130238Z 13006KT 23/13 A2988 RMK A01 T02270128  RH  054%=      5-min Rain = 0
KWA1 130239Z 12006KT 23/13 A2988 RMK A01 T02260128  RH  054%=      5-min Rain = 0
KWA1 130240Z 13006KT 23/13 A2988 RMK A01 T02250128  RH  054%=      5-min Rain = 0
KWA1 130241Z 13006KT 22/13 A2988 RMK A01 T02240128  RH  055%=      5-min Rain = 0
KWA1 130242Z 13006KT 22/13 A2988 RMK A01 T02230128  RH  055%=      5-min Rain = 0
KWA1 130243Z 13006KT 22/13 A2988 RMK A01 T02230128  RH  055%=      5-min Rain = 0
KWA1 130244Z 13006KT 22/13 A2988 RMK A01 T02220128  RH  055%=      5-min Rain = 0
KWA1 130245Z 13007KT 22/13 A2988 RMK A01 T02220128  RH  055%=      5-min Rain = 0
KWA1 130246Z 13007KT 22/13 A2988 RMK A01 T02210128  RH  055%=      5-min Rain = 0
KWA1 130247Z 13006KT 22/13 A2988 RMK A01 T02210128  RH  055%=      5-min Rain = 0
KWA1 130248Z 12007KT 22/13 A2988 RMK A01 T02210128  RH  055%=      5-min Rain = 0
KWA1 130249Z 13007KT 22/13 A2988 RMK A01 T02210128  RH  055%=      5-min Rain = 0
KWA1 130250Z 13006KT 22/13 A2988 RMK A01 T02210128  RH  055%=      5-min Rain = 0
KWA1 130251Z 13006KT 22/13 A2988 RMK A01 T02210127  RH  055%=      5-min Rain = 0
KWA1 130252Z 13006KT 22/13 A2988 RMK A01 T02210127  RH  055%=      5-min Rain = 0
KWA1 130253Z 13006KT 22/13 A2988 RMK A01 T02210127  RH  055%=      5-min Rain = 0
KWA1 130254Z 13006KT 22/13 A2988 RMK A01 T02200126  RH  055%=      5-min Rain = 0
KWA1 130255Z 13006KT 22/13 A2988 RMK A01 T02200126  RH  055%=      5-min Rain = 0
KWA1 130256Z 13006KT 22/13 A2988 RMK A01 T02210126  RH  055%=      5-min Rain = 0
KWA1 130257Z 13006KT 22/13 A2988 RMK A01 T02200126  RH  055%=      5-min Rain = 0
KWA1 130258Z 13006KT 22/13 A2988 RMK A01 T02200125  RH  055%=      5-min Rain = 0
KWA1 130259Z 13006KT 22/13 A2988 RMK A01 T02200125  RH  055%=      5-min Rain = 0
KWA1 130300Z 13006KT 22/13 A2988 RMK A01 T02200125  RH  055%=      5-min Rain = 0
KWA1 130301Z 13007KT 22/13 A2988 RMK A01 T02200125  RH  055%=      5-min Rain = 0
KWA1 130302Z 13006KT 22/13 A2988 RMK A01 T02200125  RH  055%=      5-min Rain = 0
KWA1 130303Z 13006KT 22/13 A2988 RMK A01 T02200125  RH  055%=      5-min Rain = 0
KWA1 130304Z 13007KT 22/13 A2988 RMK A01 T02200125  RH  055%=      5-min Rain = 0
KWA1 130305Z 13006KT 22/13 A2988 RMK A01 T02200125  RH  055%=      5-min Rain = 0
KWA1 130306Z 13006KT 22/13 A2988 RMK A01 T02190125  RH  055%=      5-min Rain = 0
KWA1 130307Z 13006KT 22/13 A2988 RMK A01 T02190125  RH  055%=      5-min Rain = 0
KWA1 130308Z 13006KT 22/12 A2988 RMK A01 T02190124  RH  055%=      5-min Rain = 0
KWA1 130309Z 13006KT 22/12 A2988 RMK A01 T02190124  RH  055%=      5-min Rain = 0
KWA1 130310Z 14006KT 22/12 A2988 RMK A01 T02190124  RH  055%=      5-min Rain = 0
KWA1 130311Z 14006KT 22/12 A2988 RMK A01 T02190124  RH  055%=      5-min Rain = 0
KWA1 130312Z 14006KT 22/12 A2988 RMK A01 T02190124  RH  055%=      5-min Rain = 0
KWA1 130313Z 14006KT 22/12 A2988 RMK A01 T02190124  RH  055%=      5-min Rain = 0
KWA1 130314Z 14006KT 22/12 A2988 RMK A01 T02190123  RH  054%=      5-min Rain = 0
KWA1 130315Z 14005KT 22/12 A2988 RMK A01 T02200123  RH  054%=      5-min Rain = 0
KWA1 130316Z 15006KT 22/12 A2988 RMK A01 T02200123  RH  054%=      5-min Rain = 0
KWA1 130317Z 15006KT 22/12 A2988 RMK A01 T02200124  RH  054%=      5-min Rain = 0
KWA1 130318Z 15006KT 22/13 A2988 RMK A01 T02200125  RH  055%=      5-min Rain = 0
KWA1 130319Z 15006KT 22/13 A2988 RMK A01 T02190125  RH  055%=      5-min Rain = 0
KWA1 130320Z 15005KT 22/13 A2988 RMK A01 T02180125  RH  055%=      5-min Rain = 0
KWA1 130321Z 16005KT 22/13 A2988 RMK A01 T02180125  RH  056%=      5-min Rain = 0
KWA1 130322Z 15006KT 22/13 A2988 RMK A01 T02170126  RH  056%=      5-min Rain = 0
KWA1 130323Z 16006KT 22/13 A2988 RMK A01 T02150126  RH  057%=      5-min Rain = 0
KWA1 130324Z 15006KT 21/13 A2988 RMK A01 T02140126  RH  057%=      5-min Rain = 0
KWA1 130325Z 15006KT 21/13 A2988 RMK A01 T02140126  RH  057%=      5-min Rain = 0
KWA1 130326Z 15006KT 21/13 A2988 RMK A01 T02140126  RH  057%=      5-min Rain = 0
KWA1 130327Z 16006KT 21/13 A2988 RMK A01 T02140126  RH  057%=      5-min Rain = 0
KWA1 130328Z 16006KT 21/13 A2988 RMK A01 T02140126  RH  057%=      5-min Rain = 0
KWA1 130329Z 16006KT 21/13 A2988 RMK A01 T02140126  RH  058%=      5-min Rain = 0
KWA1 130330Z 16006KT 21/13 A2988 RMK A01 T02130127  RH  058%=      5-min Rain = 0
KWA1 130331Z 16006KT 21/13 A2988 RMK A01 T02130128  RH  058%=      5-min Rain = 0
KWA1 130332Z 16006KT 21/13 A2988 RMK A01 T02120128  RH  059%=      5-min Rain = 0
KWA1 130333Z 16005KT 21/13 A2988 RMK A01 T02120128  RH  059%=      5-min Rain = 0
KWA1 130334Z 17005KT 21/13 A2988 RMK A01 T02120129  RH  059%=      5-min Rain = 0
KWA1 130335Z 16004KT 21/13 A2988 RMK A01 T02110129  RH  059%=      5-min Rain = 0
KWA1 130336Z 16005KT 21/13 A2988 RMK A01 T02110129  RH  059%=      5-min Rain = 0
KWA1 130337Z 16005KT 21/13 A2988 RMK A01 T02100129  RH  060%=      5-min Rain = 0
KWA1 130338Z 16005KT 21/13 A2988 RMK A01 T02100129  RH  060%=      5-min Rain = 0
KWA1 130339Z 16005KT 21/13 A2988 RMK A01 T02090129  RH  060%=      5-min Rain = 0
KWA1 130340Z 16005KT 21/13 A2988 RMK A01 T02080129  RH  060%=      5-min Rain = 0
KWA1 130341Z 16006KT 21/13 A2988 RMK A01 T02080129  RH  061%=      5-min Rain = 0
KWA1 130342Z 16006KT 21/13 A2988 RMK A01 T02080129  RH  061%=      5-min Rain = 0
KWA1 130343Z 16005KT 21/13 A2988 RMK A01 T02070129  RH  061%=      5-min Rain = 0
KWA1 130344Z 16006KT 21/13 A2988 RMK A01 T02070129  RH  061%=      5-min Rain = 0
KWA1 130345Z 16006KT 21/13 A2988 RMK A01 T02070130  RH  061%=      5-min Rain = 0
KWA1 130346Z 16006KT 21/13 A2988 RMK A01 T02060130  RH  061%=      5-min Rain = 0
KWA1 130347Z 16006KT 21/13 A2988 RMK A01 T02060130  RH  062%=      5-min Rain = 0
KWA1 130348Z 16006KT 21/13 A2988 RMK A01 T02060129  RH  062%=      5-min Rain = 0
KWA1 130349Z 16006KT 21/13 A2988 RMK A01 T02050128  RH  061%=      5-min Rain = 0
KWA1 130350Z 16005KT 21/13 A2988 RMK A01 T02060128  RH  061%=      5-min Rain = 0
KWA1 130351Z 16005KT 21/13 A2988 RMK A01 T02060128  RH  061%=      5-min Rain = 0
KWA1 130352Z 16005KT 21/13 A2988 RMK A01 T02060129  RH  061%=      5-min Rain = 0
KWA1 130353Z 16005KT 21/13 A2988 RMK A01 T02060129  RH  061%=      5-min Rain = 0
KWA1 130354Z 16005KT 21/13 A2988 RMK A01 T02050129  RH  061%=      5-min Rain = 0
KWA1 130355Z 16005KT 21/13 A2988 RMK A01 T02050129  RH  062%=      5-min Rain = 0
KWA1 130356Z 16005KT 20/13 A2988 RMK A01 T02040129  RH  062%=      5-min Rain = 0
KWA1 130357Z 16005KT 20/13 A2988 RMK A01 T02040130  RH  062%=      5-min Rain = 0
KWA1 130358Z 16005KT 20/13 A2988 RMK A01 T02040130  RH  062%=      5-min Rain = 0
KWA1 130359Z 16005KT 20/13 A2988 RMK A01 T02040130  RH  062%=      5-min Rain = 0
KWA1 130400Z 16005KT 20/13 A2988 RMK A01 T02030130  RH  063%=      5-min Rain = 0
KWA1 130401Z 16005KT 20/13 A2988 RMK A01 T02030130  RH  063%=      5-min Rain = 0
KWA1 130402Z 16005KT 20/13 A2988 RMK A01 T02030130  RH  063%=      5-min Rain = 0
KWA1 130403Z 16005KT 20/13 A2988 RMK A01 T02020129  RH  063%=      5-min Rain = 0
KWA1 130404Z 16005KT 20/13 A2988 RMK A01 T02020129  RH  063%=      5-min Rain = 0
KWA1 130405Z 17005KT 20/13 A2988 RMK A01 T02010129  RH  063%=      5-min Rain = 0
KWA1 130406Z 17005KT 20/13 A2988 RMK A01 T02010129  RH  063%=      5-min Rain = 0
KWA1 130407Z 16005KT 20/13 A2988 RMK A01 T02000129  RH  063%=      5-min Rain = 0
KWA1 130408Z 16005KT 20/13 A2988 RMK A01 T01990128  RH  063%=      5-min Rain = 0
KWA1 130409Z 16006KT 20/13 A2988 RMK A01 T01990127  RH  063%=      5-min Rain = 0
KWA1 130410Z 16006KT 20/13 A2988 RMK A01 T01990127  RH  063%=      5-min Rain = 0
KWA1 130411Z 16006KT 20/13 A2988 RMK A01 T01980126  RH  063%=      5-min Rain = 0
KWA1 130412Z 17006KT 20/13 A2988 RMK A01 T01980126  RH  063%=      5-min Rain = 0
KWA1 130413Z 17006KT 20/13 A2988 RMK A01 T01980126  RH  063%=      5-min Rain = 0
KWA1 130414Z 17006KT 20/13 A2988 RMK A01 T01980126  RH  063%=      5-min Rain = 0
KWA1 130415Z 17006KT 20/13 A2988 RMK A01 T01980126  RH  063%=      5-min Rain = 0
KWA1 130416Z 17006KT 20/13 A2988 RMK A01 T01980126  RH  063%=      5-min Rain = 0
KWA1 130417Z 17007KT 20/13 A2988 RMK A01 T01980126  RH  063%=      5-min Rain = 0
KWA1 130418Z 18007KT 20/13 A2988 RMK A01 T01980126  RH  063%=      5-min Rain = 0
KWA1 130419Z 18006KT 20/13 A2988 RMK A01 T01990126  RH  063%=      5-min Rain = 0
KWA1 130420Z 18006KT 20/13 A2988 RMK A01 T01990126  RH  063%=      5-min Rain = 0
KWA1 130421Z 18006KT 20/13 A2988 RMK A01 T01990127  RH  063%=      5-min Rain = 0
KWA1 130422Z 18006KT 20/13 A2988 RMK A01 T01990127  RH  063%=      5-min Rain = 0
KWA1 130423Z 18006KT 20/13 A2988 RMK A01 T01990127  RH  063%=      5-min Rain = 0
KWA1 130424Z 18006KT 20/13 A2988 RMK A01 T01990127  RH  063%=      5-min Rain = 0
KWA1 130425Z 18006KT 20/13 A2988 RMK A01 T01990127  RH  063%=      5-min Rain = 0
KWA1 130426Z 18006KT 20/13 A2988 RMK A01 T01990126  RH  063%=      5-min Rain = 0
KWA1 130427Z 18006KT 20/13 A2988 RMK A01 T01990125  RH  062%=      5-min Rain = 0
KWA1 130428Z 18006KT 20/12 A2988 RMK A01 T01990124  RH  062%=      5-min Rain = 0
KWA1 130429Z 18006KT 20/12 A2988 RMK A01 T02000124  RH  062%=      5-min Rain = 0
KWA1 130430Z 17006KT 20/12 A2988 RMK A01 T02010123  RH  061%=      5-min Rain = 0
KWA1 130431Z 17006KT 20/12 A2988 RMK A01 T02010123  RH  061%=      5-min Rain = 0
KWA1 130432Z 17006KT 20/12 A2988 RMK A01 T02020123  RH  060%=      5-min Rain = 0
KWA1 130433Z 17006KT 20/12 A2988 RMK A01 T02020123  RH  060%=      5-min Rain = 0
KWA1 130434Z 17006KT 20/12 A2988 RMK A01 T02020123  RH  060%=      5-min Rain = 0
KWA1 130435Z 17006KT 20/12 A2988 RMK A01 T02020122  RH  060%=      5-min Rain = 0
KWA1 130436Z 18006KT 20/12 A2988 RMK A01 T02030123  RH  060%=      5-min Rain = 0
KWA1 130437Z 18006KT 20/12 A2988 RMK A01 T02030124  RH  060%=      5-min Rain = 0
KWA1 130438Z 18007KT 20/12 A2988 RMK A01 T02030124  RH  060%=      5-min Rain = 0
KWA1 130439Z 18007KT 20/12 A2988 RMK A01 T02030123  RH  060%=      5-min Rain = 0
KWA1 130440Z 18006KT 20/12 A2988 RMK A01 T02040123  RH  060%=      5-min Rain = 0
KWA1 130441Z 18007KT 20/12 A2988 RMK A01 T02040122  RH  059%=      5-min Rain = 0
KWA1 130442Z 17006KT 21/12 A2988 RMK A01 T02050121  RH  059%=      5-min Rain = 0
KWA1 130443Z 17006KT 21/12 A2988 RMK A01 T02050121  RH  058%=      5-min Rain = 0
KWA1 130444Z 18006KT 21/12 A2988 RMK A01 T02060121  RH  058%=      5-min Rain = 0
KWA1 130445Z 18006KT 21/12 A2988 RMK A01 T02060121  RH  058%=      5-min Rain = 0
KWA1 130446Z 18006KT 21/12 A2988 RMK A01 T02060121  RH  058%=      5-min Rain = 0
KWA1 130447Z 18006KT 21/12 A2988 RMK A01 T02050121  RH  058%=      5-min Rain = 0
KWA1 130448Z 18006KT 21/12 A2988 RMK A01 T02050121  RH  059%=      5-min Rain = 0
KWA1 130449Z 18006KT 20/12 A2988 RMK A01 T02040121  RH  059%=      5-min Rain = 0
KWA1 130450Z 18006KT 20/12 A2988 RMK A01 T02040121  RH  059%=      5-min Rain = 0
KWA1 130451Z 18006KT 20/12 A2988 RMK A01 T02030121  RH  059%=      5-min Rain = 0
KWA1 130452Z 18006KT 20/12 A2988 RMK A01 T02030121  RH  059%=      5-min Rain = 0
KWA1 130453Z 17006KT 20/12 A2988 RMK A01 T02030121  RH  059%=      5-min Rain = 0
KWA1 130454Z 18006KT 20/12 A2988 RMK A01 T02030121  RH  059%=      5-min Rain = 0
KWA1 130455Z 18006KT 20/12 A2988 RMK A01 T02020121  RH  060%=      5-min Rain = 0
KWA1 130456Z 17006KT 20/12 A2988 RMK A01 T02020121  RH  060%=      5-min Rain = 0
KWA1 130457Z 17006KT 20/12 A2988 RMK A01 T02020121  RH  060%=      5-min Rain = 0
KWA1 130458Z 17006KT 20/12 A2988 RMK A01 T02020121  RH  060%=      5-min Rain = 0
KWA1 130459Z 17006KT 20/12 A2988 RMK A01 T02020121  RH  060%=      5-min Rain = 0

Page generated in 0.0328 seconds.